                ,  0.215,  0.315,  0.415,  0.515,  0.615,  0.715,  0.815,  0.915,  1.015,  1.115,  1.215,  1.315,  1.415,  1.515,  1.615,  1.715,  1.815,  1.915,  2.015,  2.115,  2.215,  2.315,  2.415,  2.515,  2.615,  2.715,  2.815,  2.915,  3.015,  3.115,  3.215,  3.315,  3.415,  3.515,  3.615,  3.715,  3.815,  3.915,  4.015,  4.115,  4.215,  4.315,  4.415,  4.515,  4.615,  4.715,  4.815,  4.915,  5.015,  5.115,  5.215,  5.315,  5.415,  5.515,  5.615,  5.715,  5.815,  5.915,  6.015,  6.115,  6.215,  6.315,  6.415,  6.515,  6.615,  6.715,  6.815,  6.915,  7.015,  7.115,  7.215,  7.315,  7.415,  7.515,  7.615,  7.715,  7.815,  7.915,  8.015,  8.115,  8.215,  8.315,  8.415,  8.515,  8.615,  8.715,  8.815,  8.915,  9.015,  9.115,  9.215,  9.315,  9.415,  9.515,  9.615,  9.715,  9.815,  9.915
2010/08/23 00:00,    0.0,    0.2,    0.2,    0.3,    0.3,    0.2,    0.2,    0.2,    0.2,    0.0,  999.0,  999.0,  999.0,  999.0,  999.0,  999.0,   -4.1,   -3.8,   -3.8,   -3.7,  999.0,  999.0,   -4.4,   -4.3,   -4.3,   -4.5,   -4.3,   -4.4,   -4.4,   -4.3,   -4.2,   -3.9,   -3.6,   -4.1,   -4.9,   -4.9,   -4.9,   -4.9,   -4.8,   -4.8,   -4.9,   -5.2,   -4.4,   -2.8,   -1.8,   -1.2,   -1.2,   -1.3,   -1.4,   -1.5,   -1.5,   -1.7,   -1.6,   -1.7,   -1.7,   -1.6,   -1.6,   -1.6,   -1.6,   -1.5,   -1.5,   -1.5,   -1.4,   -1.4,   -1.3,   -1.2,   -1.3,   -1.3,   -1.3,   -1.3,   -1.2,   -1.3,   -1.2,   -1.3,   -1.4,   -1.3,   -1.3,   -1.2,   -1.2,   -1.2,   -1.2,   -1.2,   -1.2,   -1.2,   -1.2,   -1.2,   -1.2,   -1.2,   -1.2,   -1.2,   -1.2,   -1.1,   -1.1,   -1.1,   -1.1,   -1.1,   -1.1,   -1.1
2010/08/23 00:10,    0.1,    0.1,    0.1,    0.1,    0.0,    0.0,   -0.0,   -0.1,   -0.2,   -0.2,   -0.2,    0.0,    0.1,  999.0,    0.3,   -0.0,   -1.9,   -1.7,   -2.4,   -0.7,   -1.0,  999.0,  999.0,  999.0,  999.0,  999.0,  999.0,  999.0,  999.0,  999.0,  999.0,  999.0,   -3.9,   -4.2,   -4.3,   -1.4,   -4.4,   -4.5,   -4.2,   -2.7,   -2.7,   -3.8,   -2.5,   -1.5,  999.0,   -0.4,   -0.6,   -0.9,   -1.0,   -1.2,   -1.4,   -1.4,   -1.5,   -1.5,   -1.5,   -1.4,   -1.4,   -1.3,   -1.2,   -1.2,   -1.2,   -1.1,   -1.2,   -1.2,   -1.1,   -1.1,   -1.1,   -0.9,   -1.0,   -0.9,   -0.9,   -0.9,   -1.0,   -1.1,   -1.1,   -1.1,   -1.2,   -1.2,   -1.2,   -1.2,   -1.3,   -1.3,   -1.3,   -1.3,   -1.3,   -1.3,   -1.3,   -1.3,   -1.3,   -1.3,   -1.2,   -1.2,   -1.1,   -1.1,   -1.1,   -1.1,   -1.1,   -1.1
2010/08/23 00:20,    0.0,    0.0,    0.0,    0.1,    0.1,    0.0,   -0.0,    0.0,   -0.1,    0.1,   -0.1,   -0.3,   -0.1,   -0.1,    0.0,    0.2,   -0.2,    0.0,    0.1,    0.2,   -0.0,   -0.2,  999.0,  999.0,  999.0,  999.0,  999.0,  999.0,   -0.3,  999.0,   -0.1,   -0.1,  999.0,   -0.1,  999.0,   -0.1,  999.0,  999.0,  999.0,  999.0,  999.0,  999.0,  999.0,  999.0,  999.0,   -0.2,   -0.2,   -0.3,  999.0,  999.0,  999.0,  999.0,  999.0,   -1.2,   -1.2,   -1.3,   -1.2,   -1.3,   -1.4,   -1.4,   -1.4,   -1.2,   -1.2,   -1.1,   -1.1,   -1.2,   -1.3,   -1.2,   -1.2,   -1.2,   -1.2,   -1.1,   -1.2,   -1.2,   -1.3,   -1.2,   -1.3,   -1.2,   -1.2,   -1.2,   -1.2,   -1.2,   -1.2,   -1.3,   -1.3,   -1.2,   -1.2,   -1.1,   -1.1,   -1.1,   -1.1,   -1.1,   -1.1,   -1.0,   -1.1,   -1.0,   -1.0,   -1.1
2010/08/23 00:30,   -0.1,    0.0,    0.1,    0.3,    0.5,    0.0,   -0.0,   -0.0,   -0.1,    0.2,    0.1,    0.2,    0.4,    0.0,    0.0,    0.0,    0.1,    0.3,    0.1,   -0.0,    0.1,    0.1,    0.1,    0.3,  999.0,  999.0,  999.0,   -0.0,   -0.1,    0.1,    0.1,  999.0,  999.0,  999.0,  999.0,  999.0,   -0.1,  999.0,  999.0,  999.0,  999.0,  999.0,  999.0,  999.0,  999.0,   -0.1,   -0.1,    0.0,   -0.1,   -0.0,   -0.2,  999.0,  999.0,  999.0,  999.0,   -1.0,   -1.2,   -1.2,   -1.2,   -1.3,   -1.2,   -1.3,   -1.3,   -1.2,   -1.2,   -1.2,   -1.2,   -1.2,   -1.2,   -1.2,   -1.2,   -1.1,   -1.1,   -1.1,   -1.1,   -1.0,   -1.0,   -1.0,   -1.0,   -1.0,   -1.0,   -0.9,   -0.9,   -0.9,   -0.9,   -0.9,   -0.9,   -0.9,   -0.8,   -0.9,   -0.9,   -0.9,   -0.9,   -1.0,   -0.9,   -0.9,   -0.9,   -0.9
2010/08/23 00:40,   -0.0,    0.3,    0.1,   -0.1,   -0.0,    0.1,    0.1,    0.2,    0.2,    0.1,    0.1,    0.2,    0.2,    0.1,    0.2,   -0.1,   -0.1,   -0.1,    0.3,  999.0,   -0.0,    0.1,   -0.0,  999.0,  999.0,    0.0,    0.3,  999.0,  999.0,  999.0,  999.0,  999.0,  999.0,  999.0,  999.0,  999.0,  999.0,  999.0,  999.0,  999.0,  999.0,  999.0,  999.0,  999.0,  999.0,  999.0,   -0.1,    0.0,  999.0,    0.2,  999.0,  999.0,  999.0,  999.0,   -1.5,   -1.5,   -1.5,   -1.5,   -1.7,   -1.2,   -1.4,   -1.4,   -1.4,   -1.3,   -1.3,   -1.3,   -1.2,   -1.3,   -1.3,   -1.2,   -1.2,   -1.1,   -1.2,   -1.2,   -1.2,   -1.2,   -1.1,   -1.1,   -1.1,   -1.1,   -1.0,   -0.9,   -0.8,   -0.9,   -0.9,   -0.9,   -0.9,   -0.8,   -0.7,   -0.8,   -0.8,   -0.9,   -0.8,   -0.8,   -0.9,   -0.9,   -0.8,   -0.8
2010/08/23 00:50,   -0.0,   -0.0,    0.0,    0.0,   -0.0,    0.0,    0.1,    0.2,    0.1,    0.1,    0.2,    0.2,    0.3,    0.2,    0.2,    0.2,    0.3,    0.2,    0.2,    0.2,    0.2,    0.2,    0.2,    0.1,    0.1,    0.1,    0.2,  999.0,    0.1,   -0.0,   -0.1,  999.0,   -0.1,  999.0,  999.0,  999.0,    0.0,   -0.1,  999.0,  999.0,    0.0,  999.0,  999.0,  999.0,  999.0,  999.0,    0.1,   -0.0,   -0.1,   -0.0,    0.2,  999.0,  999.0,   -1.1,   -1.2,   -1.4,   -1.4,   -1.5,   -1.5,   -1.5,   -1.5,   -1.5,   -1.6,   -1.6,   -1.5,   -1.4,   -1.4,   -1.3,   -1.3,   -1.3,   -1.2,   -1.2,   -1.1,   -1.1,   -1.1,   -1.1,   -1.0,   -1.0,   -1.0,   -1.0,   -1.0,   -0.9,   -0.9,   -0.8,   -0.7,   -0.7,   -0.7,   -0.7,   -0.7,   -0.7,   -0.8,   -0.9,   -0.9,   -0.9,   -0.8,   -0.7,   -0.7,   -0.7
2010/08/23 01:00,    0.0,    0.1,    0.1,    0.1,    0.1,   -0.0,    0.0,    0.1,    0.1,   -0.0,    0.0,    0.1,    0.1,    0.2,    0.1,    0.0,    0.1,    0.1,   -0.0,    0.1,    0.1,    0.2,    0.2,    0.1,    0.3,    0.3,    0.2,    0.3,    0.4,    0.0,  999.0,   -0.0,    0.1,  999.0,  999.0,  999.0,  999.0,    0.1,  999.0,  999.0,  999.0,  999.0,  999.0,  999.0,  999.0,  999.0,  999.0,   -0.2,   -0.1,  999.0,  999.0,   -0.1,   -0.1,  999.0,   -0.9,   -0.9,   -1.1,   -1.2,   -1.3,   -1.3,   -1.3,   -1.3,   -1.4,   -1.5,   -1.5,   -1.6,   -1.5,   -1.5,   -1.5,   -1.5,   -1.4,   -1.4,   -1.3,   -1.3,   -1.2,   -1.2,   -1.2,   -1.1,   -1.1,   -1.2,   -1.2,   -1.1,   -1.0,   -1.0,   -0.9,   -0.9,   -0.9,   -0.9,   -0.8,   -0.8,   -0.8,   -0.8,   -0.9,   -0.9,   -0.8,   -0.7,   -0.8,   -0.8
2010/08/23 01:10,    0.1,    0.1,    0.1,    0.3,    0.1,    0.1,   -0.0,    0.1,    0.1,    0.1,   -0.0,    0.0,    0.1,    0.1,    0.1,    0.3,   -0.7,   -0.2,   -0.2,   -0.3,    0.0,   -0.1,    0.1,    0.0,   -0.2,   -0.1,   -0.2,    0.0,   -0.0,    0.2,    0.1,    0.2,    0.2,    0.2,    0.3,    0.2,    0.3,    0.3,  999.0,  999.0,  999.0,  999.0,  999.0,  999.0,  999.0,    0.0,  999.0,   -0.0,   -0.2,   -0.5,   -1.1,   -1.3,   -1.5,   -1.4,   -1.4,   -1.5,   -1.6,   -1.5,   -1.4,   -1.4,   -1.4,   -1.4,   -1.3,   -1.2,   -1.2,   -1.2,   -1.2,   -1.3,   -1.3,   -1.3,   -1.3,   -1.3,   -1.2,   -1.1,   -1.1,   -1.1,   -1.0,   -1.0,   -1.0,   -1.0,   -1.0,   -1.0,   -0.9,   -0.8,   -0.7,   -0.7,   -0.7,   -0.8,   -0.7,   -0.7,   -0.7,   -0.6,   -0.6,   -0.6,   -0.6,   -0.5,   -0.6,   -0.6
2010/08/23 01:20,    0.0,    0.0,   -0.0,    0.1,    0.2,    0.0,    0.0,    0.1,    0.0,    0.1,  999.0,    0.1,    0.1,    0.2,    0.1,    0.1,    0.2,    0.0,    0.1,   -0.1,   -0.1,    0.2,    0.2,    0.4,   -0.4,    0.5,  999.0,    0.3,   -0.0,    0.5,    0.3,    0.2,    0.3,    0.5,    0.2,    0.0,    0.2,    0.4,    0.2,    0.2,  999.0,  999.0,  999.0,  999.0,  999.0,  999.0,  999.0,  999.0,   -0.1,   -0.1,   -0.2,  999.0,   -0.9,   -1.0,   -1.0,   -1.1,   -1.0,   -1.1,   -1.3,   -1.2,   -1.2,   -1.2,   -1.3,   -1.4,   -1.5,   -1.5,   -1.4,   -1.3,   -1.3,   -1.2,   -1.1,   -1.1,   -1.0,   -1.0,   -1.0,   -0.9,   -0.9,   -0.9,   -0.9,   -0.8,   -0.8,   -0.8,   -0.8,   -0.8,   -0.8,   -0.8,   -0.8,   -0.8,   -0.8,   -0.8,   -0.8,   -0.7,   -0.6,  999.0,  999.0,  999.0,   -0.2,  999.0
2010/08/23 01:30,    0.1,    0.2,    0.1,    0.3,    0.4,    0.1,    0.1,    0.1,    0.1,    0.4,    0.4,    0.3,    0.5,    0.5,    0.4,    0.4,    0.4,    0.3,    0.5,    0.4,    0.4,    0.3,    0.3,    0.4,    0.3,    0.4,    0.4,    0.4,    0.4,    0.4,    0.0,  999.0,    0.4,  999.0,    0.3,  999.0,    0.1,  999.0,    0.2,  999.0,    0.3,   -0.0,  999.0,  999.0,    0.1,    0.1,  999.0,  999.0,    0.2,    0.2,    0.1,    0.3,    0.2,   -0.3,   -0.3,   -0.8,   -0.7,   -0.9,   -1.0,   -1.0,   -1.0,   -1.0,   -1.2,   -1.3,   -1.4,   -1.4,   -1.4,   -1.3,   -1.2,   -1.2,   -1.2,   -1.3,   -1.3,   -1.2,   -1.1,   -1.0,   -0.9,   -0.9,   -0.9,   -0.9,   -0.8,   -0.8,   -0.8,   -0.8,   -0.8,   -0.7,   -0.7,   -0.7,   -0.8,   -0.7,  999.0,  999.0,  999.0,  999.0,  999.0,  999.0,  999.0,  999.0
2010/08/23 01:40,    0.2,    0.2,    0.1,    0.1,    0.1,    0.0,    0.0,    0.0,   -0.0,   -0.1,    0.1,    0.0,   -0.1,    0.3,    0.1,   -0.0,    0.1,    0.1,    0.2,    0.3,    0.1,  999.0,  999.0,    0.4,    0.3,    0.3,    0.4,    0.2,    0.1,    0.0,    0.1,    0.2,    0.2,  999.0,  999.0,  999.0,  999.0,  999.0,  999.0,  999.0,  999.0,   -0.0,    0.1,    0.0,   -0.0,  999.0,  999.0,  999.0,    0.2,    0.3,    0.3,    0.4,    0.4,  999.0,    0.2,  999.0,   -0.8,   -0.7,   -0.8,   -0.8,   -0.8,   -0.9,   -1.0,   -1.3,   -1.3,   -1.3,   -1.2,   -1.3,   -1.4,   -0.8,  999.0,  999.0,   -1.0,  999.0,   -0.7,  999.0,  999.0,   -1.3,   -0.9,   -0.8,   -0.9,   -0.7,   -0.8,   -0.7,   -0.7,   -0.8,   -0.8,  999.0,  999.0,  999.0,  999.0,  999.0,  999.0,  999.0,  999.0,  999.0,  999.0,  999.0
2010/08/23 01:50,    0.1,    0.2,    0.1,    0.2,    0.1,    0.0,    0.0,    0.1,    0.0,    0.1,    0.1,    0.1,    0.2,    0.2,    0.3,    0.3,    0.3,    0.3,    0.5,    0.3,    0.2,    0.1,    0.2,    0.3,    0.2,    0.2,    0.0,   -0.2,    0.1,    0.3,    0.1,    0.0,  999.0,  999.0,  999.0,  999.0,  999.0,  999.0,  999.0,  999.0,  999.0,  999.0,    0.3,  999.0,    0.3,  999.0,  999.0,  999.0,    0.2,    0.2,    0.1,    0.1,    0.2,  999.0,  999.0,  999.0,  999.0,  999.0,  999.0,  999.0,  999.0,  999.0,  999.0,  999.0,  999.0,  999.0,  999.0,  999.0,  999.0,  999.0,  999.0,    0.1,  999.0,   -0.4,  999.0,  999.0,  999.0,  999.0,  999.0,  999.0,  999.0,   -0.2,   -0.8,   -0.8,   -0.7,   -0.9,   -0.6,   -0.6,   -0.5,  999.0,  999.0,  999.0,  999.0,  999.0,  999.0,  999.0,  999.0,  999.0
2010/08/23 02:00,   -0.5,   -0.4,    0.2,    0.1,    0.1,    0.0,    0.0,   -0.0,    0.2,    0.7,    0.4,    0.1,    0.1,   -0.3,   -0.2,   -0.5,   -0.5,   -0.5,   -0.5,    0.3,    0.2,  999.0,   -0.4,   -0.3,   -0.2,   -0.3,   -0.0,    0.1,   -0.2,   -0.0,   -0.0,   -0.0,    0.1,    0.1,    0.3,  999.0,    0.1,  999.0,  999.0,    1.3,    1.6,  999.0,  999.0,  999.0,  999.0,  999.0,  999.0,  999.0,  999.0,  999.0,  999.0,  999.0,  999.0,  999.0,  999.0,  999.0,  999.0,  999.0,  999.0,  999.0,  999.0,  999.0,  999.0,  999.0,  999.0,  999.0,  999.0,  999.0,  999.0,  999.0,  999.0,  999.0,  999.0,  999.0,  999.0,  999.0,  999.0,  999.0,  999.0,  999.0,  999.0,  999.0,  999.0,  999.0,  999.0,  999.0,  999.0,  999.0,  999.0,  999.0,  999.0,  999.0,  999.0,  999.0,  999.0,  999.0,  999.0,  999.0
2010/08/23 02:10,    0.1,    0.1,    0.1,    0.2,    0.4,    0.2,    0.1,    0.2,   -0.2,   -0.3,   -0.4,    0.1,   -0.1,   -0.1,    0.1,  999.0,    0.0,    0.1,    0.2,    0.0,    0.1,    0.2,    0.1,  999.0,    0.1,    0.2,    0.1,   -0.0,    0.0,   -0.0,    0.0,  999.0,    0.1,  999.0,  999.0,  999.0,  999.0,  999.0,  999.0,  999.0,  999.0,  999.0,    0.1,    0.2,  999.0,   -0.1,  999.0,  999.0,    0.3,  999.0,  999.0,    0.1,   -0.1,   -0.1,  999.0,   -0.1,  999.0,  999.0,  999.0,  999.0,  999.0,  999.0,  999.0,  999.0,  999.0,  999.0,  999.0,  999.0,  999.0,  999.0,  999.0,  999.0,  999.0,    0.3,  999.0,  999.0,  999.0,  999.0,  999.0,  999.0,  999.0,  999.0,  999.0,  999.0,  999.0,  999.0,  999.0,  999.0,  999.0,  999.0,  999.0,  999.0,  999.0,  999.0,  999.0,  999.0,  999.0,  999.0
2010/08/23 02:20,    0.2,    0.3,    0.2,    0.3,    0.3,    0.1,    0.0,    0.2,    0.1,    0.2,    0.2,    0.2,    0.2,    0.1,    0.1,    0.1,    0.1,    0.2,    0.3,    0.3,    0.2,    0.4,    0.2,    0.2,    0.3,    0.3,    0.3,    0.3,    0.0,    0.0,  999.0,    0.1,    0.1,    0.0,  999.0,  999.0,  999.0,  999.0,  999.0,  999.0,  999.0,  999.0,    0.2,    0.1,   -0.3,    0.0,    0.1,  999.0,  999.0,  999.0,  999.0,    0.1,    0.2,    0.0,    0.0,  999.0,  999.0,    0.1,    0.4,  999.0,  999.0,  999.0,  999.0,  999.0,  999.0,  999.0,  999.0,  999.0,  999.0,  999.0,  999.0,  999.0,  999.0,  999.0,  999.0,  999.0,  999.0,  999.0,  999.0,  999.0,  999.0,  999.0,  999.0,  999.0,  999.0,  999.0,  999.0,  999.0,  999.0,  999.0,  999.0,  999.0,  999.0,  999.0,  999.0,  999.0,  999.0,  999.0
2010/08/23 02:30,    0.2,    0.4,    0.2,    0.2,    0.3,    0.1,    0.1,    0.2,    0.1,    0.1,    0.1,    0.2,    0.1,    0.1,    0.1,    0.2,    0.2,  999.0,    0.3,    0.1,    0.2,    0.2,    0.3,    0.3,    0.4,    0.3,    0.3,    0.2,    0.0,    0.1,    0.1,    0.1,  999.0,   -0.0,  999.0,  999.0,  999.0,  999.0,  999.0,  999.0,  999.0,  999.0,  999.0,    0.4,    0.3,    0.2,    0.2,  999.0,  999.0,  999.0,   -0.0,   -0.1,    0.0,   -0.0,   -0.0,  999.0,  999.0,  999.0,    0.0,   -0.1,  999.0,  999.0,  999.0,  999.0,  999.0,  999.0,  999.0,  999.0,  999.0,  999.0,  999.0,  999.0,  999.0,  999.0,  999.0,  999.0,  999.0,  999.0,  999.0,  999.0,  999.0,  999.0,  999.0,  999.0,  999.0,  999.0,  999.0,  999.0,  999.0,  999.0,  999.0,  999.0,  999.0,  999.0,  999.0,  999.0,  999.0,  999.0
2010/08/23 02:40,    0.1,    0.1,    0.1,    0.1,    0.1,    0.1,    0.0,    0.2,   -0.0,   -0.3,   -0.3,   -0.1,   -0.1,   -0.1,    0.0,   -0.2,   -0.1,   -0.0,    0.0,    0.1,    0.1,    0.0,    0.1,    0.1,  999.0,    0.2,    0.1,    0.1,   -0.0,   -0.0,    0.0,   -0.0,  999.0,    0.0,  999.0,  999.0,  999.0,  999.0,  999.0,  999.0,  999.0,  999.0,  999.0,  999.0,    0.2,    0.1,  999.0,  999.0,  999.0,    0.2,  999.0,    0.0,    0.1,    0.1,  999.0,  999.0,  999.0,  999.0,  999.0,  999.0,  999.0,  999.0,    0.2,    0.1,  999.0,  999.0,  999.0,    0.0,  999.0,   -0.0,  999.0,  999.0,  999.0,  999.0,  999.0,  999.0,  999.0,  999.0,  999.0,  999.0,  999.0,  999.0,  999.0,  999.0,  999.0,  999.0,  999.0,  999.0,  999.0,  999.0,  999.0,  999.0,  999.0,  999.0,  999.0,  999.0,  999.0,  999.0
2010/08/23 02:50,   -0.0,   -0.0,    0.1,    0.2,    0.4,    0.1,   -0.1,   -0.0,   -0.5,   -0.6,   -0.5,   -0.3,    0.2,   -0.0,    0.1,    0.1,    0.2,    0.2,    0.2,    0.3,    0.2,    0.2,    0.2,  999.0,  999.0,    0.4,    0.2,    0.2,    0.0,    0.1,    0.1,  999.0,    0.1,  999.0,  999.0,  999.0,  999.0,  999.0,  999.0,  999.0,  999.0,  999.0,  999.0,  999.0,    0.0,  999.0,  999.0,  999.0,  999.0,  999.0,    0.1,   -0.1,   -0.6,   -0.8,   -0.8,   -0.9,   -0.9,   -0.9,   -0.7,   -0.8,   -0.6,   -0.6,   -0.5,   -0.4,   -0.3,   -0.1,   -0.1,   -0.3,   -0.1,   -0.3,   -0.2,   -0.5,   -0.5,    0.2,    0.1,    0.2,    0.1,    0.1,   -0.3,   -0.2,  999.0,  999.0,  999.0,  999.0,  999.0,  999.0,  999.0,  999.0,  999.0,  999.0,  999.0,  999.0,  999.0,  999.0,  999.0,  999.0,  999.0,  999.0
2010/08/23 03:00,   -0.0,   -0.1,    0.0,    0.1,    0.2,    0.0,    0.0,    0.0,   -0.4,   -0.4,   -0.4,   -0.3,   -0.1,    0.0,    0.3,    0.3,    0.4,    0.3,    0.3,    0.3,    0.4,    0.3,    0.2,    0.5,  999.0,    0.2,    0.2,    0.1,    0.1,    0.1,    0.1,    0.1,  999.0,    0.2,    0.2,  999.0,  999.0,    0.2,    0.2,  999.0,  999.0,  999.0,  999.0,  999.0,  999.0,  999.0,  999.0,   -1.3,   -1.4,   -1.4,   -1.4,   -1.3,   -1.4,   -1.0,   -0.8,   -0.7,   -0.6,   -0.4,   -0.2,   -0.4,   -0.2,    0.0,    0.1,    0.1,   -0.0,    0.0,   -0.2,   -0.3,   -0.3,   -0.1,   -0.0,   -0.0,   -0.1,    0.0,    0.0,   -0.2,   -0.0,    0.0,   -0.0,   -0.2,   -0.2,  999.0,  999.0,  999.0,    0.1,   -0.0,  999.0,  999.0,  999.0,  999.0,  999.0,   -0.1,  999.0,  999.0,  999.0,  999.0,  999.0,  999.0
2010/08/23 03:10,    0.1,    0.0,    0.0,    0.0,   -0.1,   -0.0,   -0.1,   -0.2,   -0.3,   -0.1,   -0.1,   -0.0,    0.0,    0.1,    0.2,    0.2,    0.0,    0.1,    0.2,    0.2,    0.1,    0.2,    0.3,  999.0,  999.0,  999.0,    0.2,    0.1,    0.1,    0.1,    0.1,    0.1,  999.0,    0.0,  999.0,  999.0,  999.0,    0.2,    0.1,  999.0,  999.0,  999.0,  999.0,  999.0,  999.0,  999.0,  999.0,  999.0,   -0.1,   -0.2,    0.2,   -0.1,   -0.0,   -0.2,   -0.1,   -0.6,   -0.7,   -0.9,   -0.9,   -0.9,   -1.1,   -1.2,   -1.1,   -1.2,   -1.2,   -1.3,   -1.3,   -1.3,   -0.9,   -0.8,   -0.6,   -0.3,   -0.2,   -0.0,    0.0,    0.1,    0.1,    0.2,    0.2,    0.1,    0.1,  999.0,  999.0,    0.2,    0.1,  999.0,  999.0,  999.0,  999.0,  999.0,  999.0,  999.0,  999.0,  999.0,  999.0,  999.0,  999.0,  999.0
2010/08/23 03:20,    0.0,    0.0,    0.0,    0.2,  999.0,    0.1,   -0.0,   -0.1,    0.1,   -0.4,   -0.5,   -0.7,   -0.3,   -0.1,    0.1,    0.1,    0.0,   -0.1,    0.1,    0.2,    0.0,    0.1,    0.1,    0.2,  999.0,  999.0,   -0.0,    0.1,    0.1,    0.0,    0.2,    0.2,    0.1,   -0.0,  999.0,  999.0,  999.0,  999.0,  999.0,  999.0,  999.0,  999.0,  999.0,  999.0,  999.0,  999.0,    0.2,    0.1,   -0.0,   -0.0,   -0.2,   -0.1,   -0.1,   -0.2,   -0.2,   -0.1,   -0.2,   -0.6,   -0.7,   -0.6,   -0.9,   -0.9,   -1.1,   -1.0,   -1.0,   -0.8,   -0.7,   -0.6,   -0.6,   -0.5,   -0.3,   -0.2,   -0.2,   -0.1,   -0.0,   -0.1,  999.0,    0.2,    0.1,    0.2,  999.0,    0.4,  999.0,  999.0,  999.0,  999.0,  999.0,  999.0,  999.0,  999.0,  999.0,  999.0,  999.0,  999.0,  999.0,  999.0,  999.0,  999.0
2010/08/23 03:30,   -0.0,   -0.0,    0.0,    0.0,    0.0,    0.0,    0.1,   -0.2,   -0.1,    0.3,    0.5,    0.3,   -0.4,    0.3,   -0.1,   -0.0,   -0.2,   -0.1,   -0.1,   -0.2,   -0.1,    0.0,   -0.0,  999.0,  999.0,  999.0,  999.0,    0.1,    0.0,   -0.1,   -0.0,    0.1,    0.2,    0.0,  999.0,  999.0,  999.0,  999.0,  999.0,  999.0,  999.0,  999.0,  999.0,  999.0,  999.0,   -1.0,   -0.9,   -1.0,   -1.2,  999.0,   -0.7,   -0.3,   -0.2,   -0.0,   -0.1,   -0.2,   -0.2,   -0.3,   -0.4,   -0.2,   -0.4,   -0.5,   -0.2,   -0.2,   -0.1,   -0.1,   -0.5,   -0.5,   -0.6,   -0.7,  999.0,  999.0,  999.0,  999.0,  999.0,  999.0,   -0.0,   -0.4,   -0.4,   -0.4,  999.0,  999.0,  999.0,  999.0,  999.0,  999.0,  999.0,  999.0,  999.0,  999.0,  999.0,  999.0,  999.0,  999.0,  999.0,  999.0,  999.0,  999.0
2010/08/23 03:40,    0.0,   -0.0,   -0.0,    0.0,    0.0,   -0.0,    0.0,   -0.1,   -0.1,   -0.0,   -0.2,   -0.1,   -0.1,   -0.1,   -0.1,   -0.0,    0.3,    0.1,    0.0,    0.1,   -0.0,   -0.0,    0.1,    0.0,  999.0,    0.2,    0.1,    0.1,   -0.0,    0.1,    0.0,    0.0,    0.0,   -0.1,    0.2,  999.0,  999.0,    0.3,  999.0,  999.0,  999.0,  999.0,  999.0,  999.0,  999.0,  999.0,  999.0,  999.0,  999.0,  999.0,   -0.4,   -0.4,   -0.1,   -0.0,    0.1,    0.2,    0.1,   -0.0,   -0.2,   -0.2,   -0.3,   -0.4,   -0.7,   -0.3,   -0.5,  999.0,   -0.4,  999.0,   -0.4,   -0.3,  999.0,   -0.2,  999.0,   -0.1,  999.0,    0.1,  999.0,  999.0,  999.0,   -0.9,   -1.3,   -1.3,   -1.2,   -1.4,   -1.3,   -1.2,   -1.2,   -1.2,   -1.0,   -1.1,   -1.0,   -0.9,   -0.7,   -0.8,  999.0,  999.0,  999.0,  999.0
2010/08/23 03:50,   -0.0,   -0.0,   -0.1,   -0.0,   -0.1,   -0.0,   -0.1,   -0.1,    0.0,   -0.1,   -0.1,   -0.1,   -0.1,   -0.2,   -0.1,   -0.2,   -0.1,   -0.2,   -0.1,   -0.1,   -0.0,   -0.0,   -0.0,   -0.1,   -0.0,   -0.2,   -0.1,   -0.0,    0.0,    0.0,   -0.0,   -0.0,   -0.0,   -0.0,    0.2,  999.0,  999.0,  999.0,  999.0,    0.4,  999.0,  999.0,  999.0,  999.0,  999.0,  999.0,  999.0,    0.4,  999.0,  999.0,  999.0,  999.0,    0.1,    0.1,    0.1,    0.0,    0.1,    0.1,    0.1,    0.1,    0.1,    0.1,  999.0,  999.0,    0.2,    0.2,    0.3,    0.5,  999.0,  999.0,  999.0,    0.1,  999.0,  999.0,  999.0,  999.0,  999.0,  999.0,  999.0,  999.0,  999.0,  999.0,  999.0,  999.0,  999.0,  999.0,  999.0,  999.0,  999.0,  999.0,  999.0,  999.0,  999.0,  999.0,  999.0,  999.0,  999.0,  999.0
2010/08/23 04:00,   -0.0,   -0.0,   -0.0,   -0.1,   -0.2,   -0.0,   -0.1,   -0.2,   -0.1,   -0.1,   -0.2,   -0.3,   -0.3,   -0.3,   -0.2,   -0.3,   -0.4,   -0.5,   -0.5,   -0.4,  999.0,   -0.3,   -0.4,   -0.4,  999.0,   -0.3,   -0.3,   -0.2,   -0.1,   -0.0,   -0.0,   -0.1,   -0.1,   -0.2,  999.0,  999.0,  999.0,  999.0,  999.0,  999.0,  999.0,  999.0,  999.0,  999.0,  999.0,  999.0,  999.0,    0.1,  999.0,  999.0,    0.0,    0.0,   -0.0,    0.1,   -0.0,   -0.0,    0.1,    0.2,    0.2,    0.1,  999.0,  999.0,  999.0,  999.0,  999.0,    0.1,  999.0,  999.0,  999.0,  999.0,  999.0,  999.0,   -0.1,  999.0,  999.0,  999.0,  999.0,  999.0,  999.0,  999.0,  999.0,  999.0,  999.0,  999.0,  999.0,  999.0,  999.0,  999.0,  999.0,  999.0,  999.0,  999.0,  999.0,  999.0,  999.0,  999.0,  999.0,  999.0
2010/08/23 04:10,    0.0,   -0.0,   -0.0,   -0.0,   -0.1,   -0.0,    0.0,   -0.1,    0.0,   -0.0,   -0.1,   -0.1,   -0.2,   -0.1,   -0.1,   -0.3,   -0.1,   -0.1,   -0.2,   -0.1,   -0.1,   -0.0,   -0.2,   -0.2,   -0.2,   -0.1,   -0.1,   -0.0,   -0.0,   -0.0,   -0.0,   -0.0,   -0.1,   -0.1,   -0.3,   -0.1,  999.0,  999.0,  999.0,  999.0,  999.0,  999.0,  999.0,  999.0,  999.0,  999.0,  999.0,   -1.0,   -1.5,   -1.3,   -0.9,   -0.9,  999.0,   -0.6,   -0.6,   -0.7,  999.0,  999.0,  999.0,  999.0,  999.0,  999.0,  999.0,  999.0,  999.0,  999.0,  999.0,  999.0,  999.0,  999.0,  999.0,  999.0,  999.0,  999.0,  999.0,  999.0,  999.0,  999.0,  999.0,  999.0,   -1.3,   -1.3,   -1.1,   -1.1,   -0.8,   -0.7,  999.0,  999.0,  999.0,  999.0,  999.0,  999.0,  999.0,  999.0,  999.0,  999.0,  999.0,  999.0
2010/08/23 04:20,   -0.0,    0.0,    0.0,   -0.0,   -0.1,   -0.0,   -0.1,   -0.1,   -0.0,   -0.0,   -0.0,   -0.0,    0.0,    0.0,   -0.0,   -0.1,   -0.1,   -0.0,    0.0,    0.1,   -0.0,   -0.1,   -0.0,    0.0,   -0.0,   -0.0,   -0.0,    0.0,    0.0,    0.1,    0.0,    0.0,    0.1,  999.0,  999.0,  999.0,  999.0,  999.0,   -5.5,   -5.2,   -5.5,   -5.5,   -4.4,  999.0,  999.0,   -1.1,   -1.2,   -1.2,   -1.2,   -1.2,   -1.3,   -1.2,   -1.2,   -1.3,   -1.3,   -1.4,   -1.4,   -1.4,   -1.4,   -1.5,   -1.5,   -1.4,   -1.2,   -1.2,   -1.1,   -1.1,   -1.0,   -1.0,   -1.0,   -0.9,   -0.9,   -0.9,   -0.9,   -1.0,   -1.1,   -1.1,   -1.3,   -1.2,   -1.2,   -1.2,   -1.4,  999.0,  999.0,  999.0,  999.0,  999.0,  999.0,  999.0,  999.0,  999.0,  999.0,  999.0,  999.0,  999.0,  999.0,  999.0,  999.0,  999.0
2010/08/23 04:30,    0.0,   -0.0,   -0.0,   -0.0,   -0.0,    0.0,    0.0,   -0.0,   -0.0,   -0.0,   -0.1,   -0.1,   -0.0,   -0.0,   -0.1,   -0.1,   -0.0,   -0.0,    0.0,    0.0,    0.1,    0.1,    0.1,    0.1,    0.0,    0.0,    0.0,    0.0,   -0.0,    0.0,    0.1,    0.0,    0.0,   -0.0,   -0.0,    0.1,    0.2,  999.0,  999.0,  999.0,    0.1,    0.3,  999.0,  999.0,   -1.0,   -0.6,   -0.5,   -0.6,   -0.7,   -0.8,   -0.8,   -0.9,   -0.9,   -0.9,   -0.9,   -0.9,   -1.0,   -0.9,   -0.9,   -0.9,   -0.9,   -1.0,   -1.0,   -0.8,   -0.9,   -0.8,   -0.7,   -0.5,   -0.5,   -0.4,   -0.5,   -0.4,   -0.3,   -0.3,   -0.4,   -0.2,   -0.5,   -0.5,   -1.0,   -1.0,  999.0,   -0.8,   -0.7,   -0.6,   -0.6,   -0.6,  999.0,  999.0,  999.0,  999.0,   -0.7,   -0.6,   -0.5,   -0.5,  999.0,  999.0,  999.0,  999.0
2010/08/23 04:40,    0.0,    0.0,   -0.0,   -0.0,   -0.1,    0.0,   -0.0,   -0.1,   -0.1,   -0.1,   -0.1,   -0.1,   -0.1,   -0.1,   -0.1,   -0.1,   -0.1,   -0.1,   -0.1,   -0.0,    0.0,   -0.0,    0.0,   -0.0,    0.0,    0.0,    0.0,    0.0,   -0.0,    0.0,    0.1,    0.0,  999.0,    0.0,    0.2,  999.0,    0.1,  999.0,  999.0,  999.0,  999.0,  999.0,  999.0,  999.0,  999.0,   -0.9,   -0.8,   -0.9,   -1.0,   -1.0,   -1.1,   -1.1,   -1.1,   -1.1,   -1.1,   -1.0,   -1.0,   -0.9,   -0.9,   -0.9,   -1.1,   -0.9,   -0.8,   -0.9,   -1.0,   -0.9,   -1.0,   -0.9,   -0.8,   -0.7,   -1.0,   -1.0,   -0.9,   -0.8,   -0.9,   -1.0,   -0.7,   -0.8,   -0.9,   -0.9,   -0.6,   -0.8,  999.0,   -0.4,  999.0,  999.0,   -0.8,   -0.8,   -0.9,   -1.0,   -0.9,   -0.7,   -0.9,  999.0,  999.0,  999.0,  999.0,  999.0
2010/08/23 04:50,   -0.0,   -0.0,    0.0,   -0.1,   -0.1,    0.0,   -0.0,   -0.0,   -0.0,   -0.0,   -0.0,   -0.0,   -0.0,    0.0,    0.0,    0.0,    0.1,    0.2,    0.1,    0.2,    0.1,    0.1,    0.1,  999.0,    0.0,   -0.0,    0.0,    0.0,    0.0,   -0.0,   -0.0,    0.1,    0.1,    0.0,    0.2,    0.1,    0.1,  999.0,  999.0,  999.0,  999.0,  999.0,    0.0,  999.0,  999.0,  999.0,  999.0,  999.0,  999.0,    0.0,   -0.1,   -0.2,   -0.2,  999.0,   -1.0,   -1.0,   -1.1,   -1.0,   -1.0,   -1.0,   -1.0,   -1.1,   -1.1,   -1.2,   -1.1,   -1.0,   -0.9,   -0.8,   -0.7,   -0.7,   -0.8,   -0.8,   -0.8,   -0.9,   -0.9,   -0.9,   -0.9,   -0.9,   -0.8,   -0.7,   -0.6,   -0.5,   -0.6,   -0.5,   -0.4,  999.0,  999.0,  999.0,  999.0,  999.0,  999.0,  999.0,  999.0,  999.0,  999.0,  999.0,  999.0,  999.0
2010/08/23 05:00,   -0.0,    0.0,   -0.0,   -0.0,   -0.1,   -0.0,   -0.0,   -0.0,    0.1,   -0.0,    0.0,   -0.0,   -0.0,   -0.0,    0.0,   -0.0,    0.0,    0.0,    0.0,    0.0,    0.1,    0.1,   -1.9,   -1.8,   -1.9,  999.0,   -1.8,   -1.7,   -1.8,   -1.6,   -1.8,   -1.6,    0.1,  999.0,  999.0,  999.0,  999.0,  999.0,  999.0,  999.0,  999.0,  999.0,  999.0,  999.0,  999.0,  999.0,  999.0,  999.0,   -0.8,   -0.6,   -0.5,   -0.3,   -0.6,   -0.9,   -1.1,   -1.2,   -1.2,   -1.2,   -1.2,   -1.3,   -1.2,   -1.2,   -1.2,   -1.2,   -1.1,   -1.1,   -1.1,   -1.1,   -1.1,   -1.2,   -1.2,   -1.2,   -1.2,   -1.2,   -1.1,   -1.0,   -0.9,   -0.8,   -0.8,   -0.8,   -0.8,   -0.7,   -0.7,   -0.6,   -0.8,  999.0,  999.0,  999.0,  999.0,  999.0,  999.0,  999.0,  999.0,  999.0,  999.0,  999.0,  999.0,  999.0
2010/08/23 05:10,    0.0,    0.0,    0.0,   -0.0,   -0.0,   -0.0,    0.0,    0.0,    0.1,    0.1,    0.0,   -0.0,    0.0,    0.0,    0.0,    0.1,    0.1,    0.1,    0.0,    0.0,    0.1,  999.0,  999.0,   -1.4,   -3.1,   -2.3,   -2.4,   -1.9,   -2.3,   -2.3,   -4.4,   -2.0,   -4.0,  999.0,  999.0,  999.0,  999.0,   -3.8,   -3.6,   -3.9,   -3.9,   -3.6,   -3.5,   -3.0,   -1.6,   -0.7,   -0.8,   -0.8,   -0.9,   -1.0,   -0.9,   -0.9,   -0.9,   -0.8,   -0.9,   -0.9,   -0.8,   -0.7,   -0.7,   -0.9,   -0.9,   -0.8,   -0.8,   -0.8,   -0.9,   -0.9,   -1.0,   -1.1,   -1.1,   -1.1,   -1.1,   -1.1,   -1.1,   -1.0,   -1.0,   -0.9,   -0.7,   -0.7,   -0.6,   -0.7,   -0.6,   -0.6,   -0.6,   -0.7,   -0.8,   -0.9,  999.0,  999.0,  999.0,  999.0,  999.0,  999.0,  999.0,  999.0,  999.0,  999.0,  999.0,  999.0
2010/08/23 05:20,   -0.0,   -0.0,    0.0,   -0.0,    0.1,   -0.0,   -0.0,   -0.1,   -0.0,    0.0,    0.1,    0.2,    0.1,    0.1,    0.0,    0.1,    0.0,    0.1,    0.0,    0.0,    0.0,    0.0,    0.1,    0.1,    0.2,  999.0,   -0.0,    0.0,    0.0,    0.0,   -0.0,    0.0,    0.2,    0.2,  999.0,  999.0,  999.0,  999.0,  999.0,  999.0,   -4.1,   -4.0,   -2.6,   -2.0,   -1.4,   -0.6,   -0.8,   -0.6,   -0.9,   -0.9,   -1.0,   -1.1,   -1.0,   -1.3,   -1.3,   -1.4,   -1.2,   -1.2,   -1.0,   -1.0,   -0.9,  999.0,  999.0,  999.0,  999.0,  999.0,  999.0,  999.0,  999.0,  999.0,  999.0,  999.0,  999.0,  999.0,  999.0,  999.0,  999.0,  999.0,  999.0,  999.0,  999.0,  999.0,  999.0,   -0.6,  999.0,  999.0,  999.0,  999.0,  999.0,  999.0,  999.0,  999.0,  999.0,  999.0,  999.0,  999.0,  999.0,  999.0
2010/08/23 05:30,   -0.0,   -0.0,   -0.0,   -0.1,   -0.1,    0.0,   -0.0,   -0.0,   -0.0,   -0.0,   -0.0,   -0.1,    0.0,    0.0,   -0.0,    0.0,    0.0,   -0.0,   -0.0,   -0.0,   -0.0,   -0.1,   -0.1,   -0.1,    0.0,   -0.0,   -0.0,   -0.0,   -0.0,   -0.0,    0.0,    0.0,    0.0,   -0.1,  999.0,   -0.2,  999.0,  999.0,  999.0,  999.0,  999.0,  999.0,    0.2,  999.0,    0.1,  999.0,   -0.0,   -0.0,  999.0,  999.0,   -0.3,   -0.4,  999.0,   -0.3,   -0.1,    0.1,  999.0,  999.0,  999.0,  999.0,  999.0,  999.0,  999.0,  999.0,  999.0,  999.0,  999.0,  999.0,  999.0,  999.0,  999.0,  999.0,  999.0,  999.0,  999.0,  999.0,  999.0,  999.0,  999.0,  999.0,  999.0,  999.0,  999.0,  999.0,  999.0,  999.0,  999.0,  999.0,  999.0,  999.0,  999.0,  999.0,  999.0,  999.0,  999.0,  999.0,  999.0,  999.0
2010/08/23 05:40,   -0.0,   -0.0,    0.0,   -0.0,   -0.0,   -0.0,   -0.0,   -0.0,   -0.0,   -0.2,   -0.1,    0.1,    0.1,    0.0,    0.0,    0.0,    0.1,    0.0,    0.1,    0.1,    0.1,    0.1,    0.1,    0.1,    0.1,  999.0,    0.0,    0.0,    0.0,    0.0,   -0.0,    0.1,    0.2,    0.2,  999.0,    0.1,    0.3,    0.4,  999.0,  999.0,    0.3,  999.0,  999.0,  999.0,    0.1,    0.3,  999.0,  999.0,   -0.1,  999.0,   -0.0,  999.0,  999.0,  999.0,   -0.0,   -0.1,  999.0,  999.0,  999.0,  999.0,  999.0,  999.0,  999.0,  999.0,  999.0,  999.0,  999.0,  999.0,  999.0,  999.0,  999.0,  999.0,  999.0,  999.0,  999.0,  999.0,  999.0,  999.0,  999.0,  999.0,  999.0,  999.0,  999.0,  999.0,  999.0,  999.0,  999.0,  999.0,  999.0,  999.0,  999.0,  999.0,  999.0,  999.0,  999.0,  999.0,  999.0,  999.0
2010/08/23 05:50,    0.0,   -0.0,   -0.0,   -0.0,    0.0,    0.0,   -0.0,   -0.1,   -0.1,   -0.0,    0.1,    0.0,   -0.0,    0.0,    0.1,    0.0,    0.0,    0.1,    0.1,    0.1,    0.2,    0.2,    0.3,    0.2,    0.2,  999.0,    0.1,    0.0,    0.0,   -0.0,    0.1,    0.0,    0.0,    0.2,    0.2,  999.0,  999.0,    0.4,  999.0,  999.0,  999.0,  999.0,  999.0,  999.0,  999.0,  999.0,    0.2,  999.0,  999.0,  999.0,    0.0,  999.0,  999.0,  999.0,  999.0,  999.0,  999.0,  999.0,  999.0,  999.0,  999.0,  999.0,  999.0,  999.0,  999.0,  999.0,  999.0,  999.0,  999.0,  999.0,  999.0,  999.0,  999.0,  999.0,  999.0,  999.0,  999.0,  999.0,  999.0,  999.0,  999.0,  999.0,  999.0,  999.0,  999.0,  999.0,  999.0,  999.0,  999.0,  999.0,  999.0,  999.0,  999.0,  999.0,  999.0,  999.0,  999.0,  999.0
2010/08/23 06:00,   -0.0,   -0.0,    0.0,   -0.0,   -0.1,   -0.0,   -0.0,   -0.0,   -0.1,   -0.0,    0.0,   -0.0,   -0.0,    0.0,    0.0,    0.0,    0.1,    0.1,    0.2,    0.2,    0.2,    0.1,    0.2,    0.2,    0.1,    0.0,    0.0,   -0.0,   -0.0,    0.0,    0.0,    0.0,   -0.0,    0.2,    0.3,    0.3,  999.0,  999.0,    0.0,    0.2,  999.0,  999.0,  999.0,  999.0,  999.0,  999.0,  999.0,    0.1,   -0.0,  999.0,    0.2,  999.0,  999.0,  999.0,  999.0,  999.0,  999.0,  999.0,  999.0,  999.0,  999.0,  999.0,  999.0,  999.0,  999.0,  999.0,  999.0,  999.0,  999.0,  999.0,  999.0,  999.0,  999.0,  999.0,  999.0,  999.0,  999.0,  999.0,  999.0,  999.0,  999.0,  999.0,  999.0,  999.0,  999.0,  999.0,  999.0,  999.0,  999.0,  999.0,  999.0,  999.0,  999.0,  999.0,  999.0,  999.0,  999.0,  999.0
2010/08/23 06:10,   -0.0,    0.0,    0.0,    0.0,   -0.0,   -0.0,   -0.0,   -0.1,   -0.1,   -0.1,    0.0,    0.0,    0.1,   -0.0,    0.0,    0.0,    0.0,    0.0,    0.1,    0.1,    0.0,   -0.0,   -0.0,    0.2,    0.0,   -0.0,    0.0,   -0.0,    0.0,    0.0,   -0.0,    0.0,   -0.0,    0.0,   -0.0,   -0.0,  999.0,  999.0,  999.0,  999.0,  999.0,  999.0,  999.0,  999.0,  999.0,  999.0,  999.0,  999.0,  999.0,  999.0,  999.0,  999.0,  999.0,  999.0,  999.0,  999.0,  999.0,  999.0,  999.0,  999.0,  999.0,  999.0,  999.0,  999.0,  999.0,  999.0,    0.0,  999.0,  999.0,  999.0,   -0.1,  999.0,  999.0,  999.0,  999.0,  999.0,  999.0,  999.0,  999.0,  999.0,  999.0,  999.0,  999.0,  999.0,  999.0,  999.0,  999.0,  999.0,  999.0,  999.0,  999.0,  999.0,  999.0,  999.0,  999.0,  999.0,  999.0,  999.0
2010/08/23 06:20,   -0.0,    0.0,    0.0,    0.0,    0.0,   -0.0,   -0.0,   -0.0,   -0.0,   -0.2,   -0.2,   -0.1,   -0.0,    0.0,    0.0,   -0.0,   -0.1,   -0.1,   -0.1,   -0.2,   -0.1,   -0.0,   -0.1,   -0.2,   -0.2,   -0.1,    0.0,   -0.0,   -0.0,   -0.0,   -0.0,    0.0,   -0.0,    0.0,    0.1,    0.2,  999.0,  999.0,  999.0,  999.0,  999.0,  999.0,    0.3,  999.0,  999.0,  999.0,    0.2,  999.0,    0.0,  999.0,  999.0,  999.0,  999.0,    0.2,  999.0,  999.0,  999.0,  999.0,  999.0,  999.0,  999.0,  999.0,  999.0,  999.0,  999.0,  999.0,    0.0,  999.0,  999.0,  999.0,  999.0,  999.0,  999.0,  999.0,  999.0,  999.0,  999.0,  999.0,  999.0,  999.0,  999.0,  999.0,  999.0,  999.0,  999.0,  999.0,  999.0,  999.0,  999.0,  999.0,  999.0,  999.0,  999.0,  999.0,  999.0,  999.0,  999.0,  999.0
2010/08/23 06:30,   -0.0,    0.0,   -0.0,    0.0,   -0.0,   -0.0,   -0.0,   -0.1,   -0.2,   -0.3,   -0.2,   -0.1,   -0.1,   -0.0,   -0.0,    0.0,   -0.1,   -0.1,   -0.1,   -0.1,   -0.0,   -0.0,    0.0,    0.0,    0.0,    0.1,    0.0,   -0.0,   -0.0,    0.0,   -0.0,   -0.0,   -0.0,   -0.0,   -0.0,    0.1,  999.0,  999.0,    0.1,    0.2,  999.0,  999.0,  999.0,    0.2,    0.4,  999.0,  999.0,    0.3,  999.0,  999.0,  999.0,  999.0,  999.0,  999.0,    0.1,  999.0,  999.0,  999.0,  999.0,  999.0,  999.0,  999.0,  999.0,  999.0,  999.0,  999.0,  999.0,  999.0,  999.0,  999.0,  999.0,  999.0,  999.0,  999.0,    0.0,  999.0,  999.0,  999.0,  999.0,  999.0,  999.0,  999.0,  999.0,  999.0,  999.0,  999.0,  999.0,  999.0,  999.0,  999.0,  999.0,  999.0,  999.0,  999.0,  999.0,  999.0,  999.0,  999.0
2010/08/23 06:40,   -0.0,   -0.0,   -0.0,    0.0,   -0.0,   -0.1,   -0.1,   -0.1,   -0.0,   -0.1,   -0.1,   -0.0,    0.0,   -0.0,   -0.0,   -0.0,   -0.1,   -0.1,   -0.1,   -0.2,   -0.2,   -0.1,    0.0,   -0.0,   -0.1,   -0.0,   -0.0,   -0.0,   -0.0,    0.0,   -0.0,   -0.0,    0.0,   -0.0,    0.0,    0.1,    0.3,  999.0,  999.0,    0.3,  999.0,  999.0,  999.0,  999.0,  999.0,    0.3,    0.4,  999.0,  999.0,  999.0,  999.0,  999.0,  999.0,  999.0,   -0.0,  999.0,  999.0,  999.0,  999.0,  999.0,  999.0,  999.0,  999.0,  999.0,  999.0,  999.0,  999.0,  999.0,  999.0,  999.0,  999.0,  999.0,  999.0,  999.0,  999.0,  999.0,  999.0,  999.0,  999.0,  999.0,  999.0,  999.0,  999.0,  999.0,  999.0,  999.0,  999.0,  999.0,  999.0,  999.0,  999.0,  999.0,  999.0,  999.0,  999.0,  999.0,  999.0,  999.0
2010/08/23 06:50,   -0.0,    0.0,    0.0,   -0.0,   -0.0,    0.0,    0.0,   -0.0,   -0.1,   -0.0,   -0.0,   -0.0,    0.0,   -0.0,   -0.0,   -0.1,   -0.2,   -0.2,   -0.1,   -0.1,   -0.1,   -0.0,   -0.1,  999.0,   -0.1,   -0.0,   -0.0,   -0.0,   -0.0,    0.0,    0.0,    0.0,   -0.0,    0.0,  999.0,  999.0,    0.3,  999.0,  999.0,    0.2,  999.0,  999.0,  999.0,  999.0,  999.0,  999.0,  999.0,    0.5,  999.0,  999.0,  999.0,  999.0,  999.0,    0.1,  999.0,    0.1,  999.0,  999.0,  999.0,  999.0,  999.0,  999.0,  999.0,  999.0,  999.0,  999.0,  999.0,  999.0,  999.0,  999.0,  999.0,  999.0,  999.0,  999.0,  999.0,  999.0,  999.0,  999.0,  999.0,  999.0,  999.0,  999.0,  999.0,  999.0,  999.0,  999.0,  999.0,  999.0,  999.0,  999.0,  999.0,  999.0,  999.0,  999.0,  999.0,  999.0,  999.0,  999.0
2010/08/23 07:00,   -0.0,    0.0,    0.0,   -0.0,   -0.0,   -0.0,   -0.0,   -0.0,   -0.0,   -0.0,   -0.0,   -0.0,   -0.0,   -0.0,    0.0,   -0.0,   -0.1,   -0.0,   -0.1,   -0.0,   -0.0,   -0.0,    0.0,   -0.0,   -0.0,    0.0,   -0.0,   -0.0,    0.0,    0.0,   -0.0,    0.1,    0.0,  999.0,   -0.0,  999.0,  999.0,    0.3,  999.0,  999.0,    0.3,    0.3,  999.0,  999.0,  999.0,  999.0,  999.0,    0.1,    0.1,  999.0,  999.0,  999.0,  999.0,    0.0,  999.0,  999.0,  999.0,  999.0,  999.0,  999.0,  999.0,  999.0,  999.0,  999.0,  999.0,  999.0,  999.0,  999.0,  999.0,  999.0,  999.0,  999.0,  999.0,  999.0,  999.0,    0.1,  999.0,  999.0,  999.0,  999.0,  999.0,  999.0,  999.0,  999.0,  999.0,  999.0,  999.0,  999.0,  999.0,  999.0,  999.0,  999.0,  999.0,  999.0,  999.0,  999.0,  999.0,  999.0
2010/08/23 07:10,    0.0,    0.0,    0.0,   -0.0,   -0.0,   -0.0,    0.0,   -0.0,   -0.0,   -0.0,    0.0,    0.0,    0.0,   -0.0,    0.0,   -0.0,   -0.1,   -0.2,   -0.0,   -0.1,   -0.1,    0.1,   -0.0,  999.0,  999.0,    0.0,    0.0,    0.0,   -0.0,    0.0,    0.0,    0.0,    0.1,   -0.0,    0.0,  999.0,  999.0,    0.2,    0.3,  999.0,  999.0,    0.2,  999.0,  999.0,  999.0,  999.0,    0.4,    0.4,  999.0,  999.0,   -0.0,  999.0,  999.0,   -0.1,  999.0,  999.0,  999.0,  999.0,  999.0,  999.0,  999.0,  999.0,  999.0,  999.0,  999.0,  999.0,  999.0,  999.0,  999.0,  999.0,  999.0,  999.0,  999.0,  999.0,  999.0,  999.0,  999.0,  999.0,  999.0,  999.0,  999.0,  999.0,  999.0,  999.0,  999.0,  999.0,  999.0,  999.0,  999.0,  999.0,  999.0,  999.0,  999.0,  999.0,  999.0,  999.0,  999.0,  999.0
2010/08/23 07:20,    0.0,   -0.0,   -0.0,   -0.0,   -0.0,    0.0,    0.0,   -0.0,   -0.0,    0.0,    0.0,   -0.0,   -0.0,   -0.0,   -0.1,   -0.2,   -0.1,   -0.1,   -0.1,   -0.1,   -0.1,   -0.0,   -0.1,    0.0,    0.1,    0.0,   -0.0,    0.0,    0.0,    0.0,   -0.0,   -0.0,    0.0,   -0.0,  999.0,  999.0,  999.0,    0.1,    0.1,    0.1,    0.1,    0.3,    0.4,    0.4,  999.0,  999.0,    0.1,    0.5,  999.0,  999.0,  999.0,  999.0,  999.0,    0.3,  999.0,  999.0,  999.0,  999.0,  999.0,  999.0,  999.0,  999.0,  999.0,  999.0,  999.0,  999.0,  999.0,  999.0,  999.0,  999.0,  999.0,  999.0,  999.0,  999.0,  999.0,  999.0,  999.0,  999.0,  999.0,  999.0,  999.0,  999.0,  999.0,  999.0,  999.0,  999.0,  999.0,  999.0,  999.0,  999.0,  999.0,  999.0,  999.0,  999.0,  999.0,  999.0,  999.0,  999.0
2010/08/23 07:30,   -0.0,    0.0,    0.0,    0.0,   -0.0,    0.0,   -0.0,   -0.1,    0.0,   -0.0,    0.0,   -0.0,   -0.1,   -0.0,   -0.2,   -0.2,   -0.2,   -0.2,   -0.2,   -0.1,   -0.1,   -0.0,   -0.0,   -0.2,  999.0,   -0.0,   -0.0,   -0.0,   -0.0,    0.0,   -0.0,   -0.0,    0.0,    0.1,   -0.0,  999.0,  999.0,  999.0,    0.1,    0.2,    0.2,  999.0,    0.3,    0.6,  999.0,  999.0,  999.0,  999.0,  999.0,  999.0,  999.0,  999.0,  999.0,  999.0,  999.0,  999.0,  999.0,  999.0,  999.0,   -2.0,  999.0,   -1.6,   -1.4,   -1.3,   -1.1,  999.0,   -1.0,   -1.2,   -1.3,   -1.3,   -1.2,   -1.1,   -1.0,   -1.1,   -1.2,   -1.4,   -1.4,   -1.1,   -1.0,   -0.9,   -0.7,   -0.6,   -0.7,   -0.6,   -0.6,   -0.6,   -1.0,   -1.0,   -1.0,   -0.9,   -0.9,   -0.8,   -0.8,   -0.7,   -0.6,   -0.6,   -0.6,   -1.0
2010/08/23 07:40,   -0.0,   -0.0,    0.0,    0.1,    0.2,   -0.0,    0.1,   -0.1,   -0.1,    0.3,    0.0,    0.3,    0.6,    0.5,    0.3,    0.3,    0.2,    0.2,    0.2,    0.1,    0.1,    0.1,   -0.1,  999.0,   -0.1,   -0.1,   -0.0,   -0.0,   -0.0,   -0.0,   -0.0,   -0.0,   -0.1,   -0.0,    0.0,  999.0,  999.0,  999.0,  999.0,   -0.1,   -0.0,  999.0,  999.0,  999.0,   -1.4,   -1.4,   -1.7,   -1.7,   -1.6,   -1.6,   -1.7,   -1.7,   -1.8,   -1.8,   -1.7,   -1.7,   -1.7,   -1.7,   -1.7,   -1.7,   -1.7,   -1.6,   -1.5,   -1.5,   -1.4,   -1.3,   -1.3,   -1.3,   -1.2,   -1.2,   -1.2,   -1.3,   -1.4,   -1.4,   -1.5,   -1.3,   -1.2,   -1.0,   -0.9,   -0.8,   -0.7,   -0.7,   -0.7,   -0.7,   -0.7,   -0.7,   -0.7,   -0.7,   -0.7,   -0.7,   -0.6,   -0.7,   -0.7,   -0.6,   -0.7,   -0.8,   -0.8,   -0.7
2010/08/23 07:50,   -0.0,   -0.0,    0.0,    0.0,    0.1,    0.0,   -1.8,    0.3,   -2.8,   -1.2,   -1.3,   -3.1,   -1.2,   -0.5,   -1.5,   -1.9,   -1.6,   -0.4,   -0.5,    0.5,   -0.7,  999.0,  999.0,  999.0,   -0.6,   -0.6,   -1.7,   -0.9,   -0.0,   -0.0,   -0.8,   -1.2,   -1.3,  999.0,  999.0,  999.0,  999.0,  999.0,  999.0,  999.0,  999.0,  999.0,  999.0,   -1.4,   -1.5,   -1.5,   -1.4,   -1.4,   -1.4,   -1.4,   -1.4,   -1.5,   -1.5,   -1.5,   -1.4,   -1.4,   -1.3,   -1.4,   -1.4,   -1.4,   -1.4,   -1.4,   -1.4,   -1.3,   -1.3,   -1.3,   -1.3,   -1.3,   -1.3,   -1.3,   -1.3,   -1.2,   -1.3,   -1.2,   -1.1,   -1.0,   -1.0,   -1.2,   -1.3,   -1.3,   -1.1,   -1.1,   -0.9,   -0.9,   -0.8,   -0.8,   -0.5,   -0.6,   -0.6,   -0.5,   -0.5,   -0.3,   -0.3,   -0.5,   -0.5,   -0.5,   -0.5,   -0.5
2010/08/23 08:00,   -5.7,   -6.1,   -6.1,   -6.1,   -5.7,   -5.7,   -5.7,   -4.9,   -4.6,   -3.4,   -3.7,   -4.2,   -3.5,  999.0,   -5.6,   -5.5,   -5.1,   -4.2,   -4.6,   -5.0,  999.0,  999.0,  999.0,  999.0,   -6.2,  999.0,   -6.8,   -6.6,   -6.2,   -6.3,   -6.3,   -6.3,   -6.2,   -6.5,   -6.6,   -7.0,   -7.0,   -7.1,   -7.0,   -6.8,   -5.7,   -4.2,   -2.2,   -1.7,   -1.7,   -1.6,   -1.6,   -1.5,   -1.6,   -1.6,   -1.6,   -1.6,   -1.6,   -1.6,   -1.6,   -1.6,   -1.5,   -1.5,   -1.5,   -1.5,   -1.5,   -1.4,   -1.3,   -1.3,   -1.3,   -1.2,   -1.2,   -1.2,   -1.3,   -1.2,   -1.1,   -1.0,   -1.0,   -1.0,   -1.0,   -0.9,   -1.0,   -1.1,   -0.8,   -0.6,   -0.5,   -0.4,   -0.4,   -0.4,   -0.5,   -0.4,   -0.4,   -0.6,   -0.8,   -0.9,   -0.8,   -1.0,   -1.3,   -1.3,   -1.2,   -1.2,   -1.2,   -1.1
2010/08/23 08:10,   -6.9,   -6.9,   -6.8,   -6.8,   -6.6,   -6.4,   -6.5,   -6.6,   -6.4,   -6.4,   -6.3,   -6.4,   -6.3,   -6.2,   -6.2,   -6.3,   -6.1,   -6.3,   -6.4,   -6.5,   -6.5,   -6.5,   -6.5,   -6.5,   -6.5,   -6.6,   -6.6,   -6.7,   -6.7,   -6.8,   -6.9,   -6.9,   -6.9,   -7.1,   -7.2,   -7.3,   -7.4,   -7.4,   -7.2,   -7.4,   -5.2,  999.0,   -2.2,   -2.3,   -2.2,   -2.0,   -1.8,   -1.8,   -1.8,   -1.7,   -1.7,   -1.7,   -1.6,   -1.6,   -1.6,   -1.5,   -1.4,   -1.4,   -1.4,   -1.3,   -1.2,   -1.1,   -1.0,   -1.0,   -1.0,   -1.0,   -1.1,   -1.1,   -1.2,   -1.2,   -1.2,   -1.0,   -0.9,   -0.9,   -0.9,   -0.9,   -0.8,   -0.8,   -0.7,   -0.5,   -0.4,   -0.4,   -0.3,   -0.3,   -0.6,   -0.8,   -0.6,   -0.6,   -0.7,   -0.7,   -0.6,   -0.5,   -0.6,   -0.6,   -0.6,   -0.7,   -0.7,   -0.7
2010/08/23 08:20,   -6.9,   -6.9,   -6.6,   -6.6,   -6.4,   -6.1,   -6.1,   -6.3,   -6.3,   -6.0,   -5.9,   -6.4,   -6.2,   -6.2,   -6.6,   -6.5,   -6.4,   -6.5,   -6.5,   -6.7,   -6.7,   -6.6,   -6.7,   -6.7,   -6.7,   -6.7,   -6.6,   -6.7,   -6.7,   -6.8,   -6.9,   -6.9,   -7.1,   -7.0,   -7.2,   -7.1,   -7.1,   -6.9,   -6.8,   -6.5,  999.0,   -4.2,  999.0,   -2.0,   -2.0,   -2.0,   -1.9,   -1.9,   -1.8,   -1.8,   -1.7,   -1.7,   -1.6,   -1.6,   -1.5,   -1.4,   -1.3,   -1.2,   -1.2,   -1.1,   -1.2,   -1.2,   -1.1,   -1.1,   -1.1,   -1.0,   -1.0,   -0.9,   -0.8,   -0.6,   -0.6,   -0.6,   -0.6,   -0.6,   -0.5,   -0.5,   -0.4,   -0.7,   -0.8,   -0.8,   -0.4,   -1.2,  999.0,  999.0,   -0.9,  999.0,  999.0,  999.0,  999.0,  999.0,  999.0,  999.0,  999.0,  999.0,  999.0,  999.0,  999.0,  999.0
2010/08/23 08:30,   -6.4,   -6.6,   -6.6,   -6.2,   -6.2,   -6.1,   -5.9,   -5.8,   -5.7,   -5.6,   -5.6,   -5.9,   -6.0,   -5.9,   -6.0,   -6.0,   -6.0,   -5.8,   -6.1,   -6.3,   -6.4,   -6.4,   -6.4,   -6.3,   -6.4,   -6.2,   -6.1,   -6.1,   -6.1,   -6.0,   -5.7,   -5.9,   -5.8,   -5.9,   -5.8,   -5.9,   -5.7,   -6.0,   -5.8,   -5.6,  999.0,   -3.9,  999.0,   -2.1,   -1.9,   -1.9,   -1.8,   -1.7,   -1.7,   -1.7,   -1.7,   -1.6,   -1.6,   -1.6,   -1.6,   -1.5,   -1.5,   -1.4,   -1.3,   -1.3,   -1.3,   -1.3,   -1.3,   -1.1,   -1.0,   -1.0,   -0.9,   -0.9,   -0.8,   -0.8,   -0.9,   -0.8,   -0.7,   -0.6,   -0.6,   -0.6,   -0.5,   -0.6,   -0.7,   -0.6,   -0.6,   -0.6,   -0.7,   -0.8,   -0.6,   -0.5,   -0.8,   -0.7,   -0.7,   -0.8,   -0.5,   -0.4,   -0.3,  999.0,  999.0,  999.0,  999.0,  999.0
2010/08/23 08:40,   -5.2,   -5.3,   -5.3,   -5.4,   -5.5,   -5.8,   -5.7,   -4.7,   -4.5,   -4.8,   -4.7,   -5.6,   -5.5,   -5.4,   -5.6,   -5.6,   -5.5,   -5.5,   -5.8,   -5.9,   -5.8,   -5.8,   -5.7,   -5.8,   -5.6,   -5.6,   -5.5,   -5.7,   -5.5,   -5.5,   -5.6,   -5.6,   -5.6,   -5.5,   -5.6,   -5.5,   -5.5,   -5.5,   -5.4,   -5.4,   -5.3,   -5.2,  999.0,  999.0,   -1.6,   -1.6,   -1.6,   -1.5,   -1.5,   -1.5,   -1.5,   -1.6,   -1.6,   -1.5,   -1.5,   -1.5,   -1.4,   -1.3,   -1.2,   -1.1,   -1.1,   -1.1,   -1.1,   -1.1,   -1.1,   -1.2,   -1.2,   -1.1,   -1.1,   -1.1,   -1.1,   -1.1,   -1.0,   -0.9,   -0.8,   -0.7,   -0.7,   -0.8,   -0.9,   -0.9,   -0.9,   -1.0,   -1.0,   -1.0,   -1.0,   -0.9,   -0.8,   -0.8,   -0.9,   -1.1,   -1.0,   -0.9,   -0.9,   -0.6,  999.0,  999.0,  999.0,  999.0
2010/08/23 08:50,   -0.0,    0.0,   -1.2,   -1.2,   -1.2,  999.0,  999.0,   -3.9,   -3.7,   -3.6,   -3.7,   -3.6,   -3.6,   -3.5,   -3.5,   -3.5,   -3.5,   -3.7,   -3.7,   -3.4,   -3.5,   -3.1,   -3.0,   -3.1,   -3.9,   -4.2,  999.0,   -4.6,   -4.8,   -4.9,   -4.8,   -4.6,   -4.5,   -4.7,   -4.7,   -4.8,   -4.8,   -4.9,   -4.9,   -5.0,   -4.9,   -4.9,   -3.9,  999.0,  999.0,   -1.6,   -1.6,   -1.6,   -1.7,   -1.6,   -1.7,   -1.6,   -1.7,   -1.7,   -1.6,   -1.5,   -1.5,   -1.4,   -1.3,   -1.3,   -1.2,   -1.2,   -1.1,   -1.1,   -1.1,   -1.1,   -1.0,   -1.0,   -0.9,   -0.8,   -0.7,   -0.7,   -0.8,   -0.9,   -0.8,   -0.8,   -0.7,   -0.7,   -0.6,   -0.6,   -0.6,   -0.7,   -0.7,   -0.7,   -0.7,   -0.6,   -0.5,   -0.4,   -0.3,   -0.3,   -0.3,   -0.4,   -0.4,   -0.5,   -0.3,  999.0,  999.0,  999.0
2010/08/23 09:00,    0.0,   -0.0,    0.0,   -0.0,   -0.1,   -0.0,  999.0,  999.0,  999.0,   -3.7,   -3.6,   -3.4,   -3.2,  999.0,  999.0,  999.0,  999.0,  999.0,  999.0,  999.0,  999.0,  999.0,  999.0,   -2.5,   -2.6,   -2.6,  999.0,   -2.3,  999.0,  999.0,  999.0,  999.0,   -2.4,  999.0,   -2.2,   -2.2,   -2.1,   -2.2,   -2.1,   -2.1,  999.0,   -2.2,  999.0,  999.0,   -1.4,   -1.5,   -1.5,   -1.4,   -1.4,   -1.5,   -1.5,   -1.5,   -1.5,   -1.5,   -1.5,   -1.5,   -1.5,   -1.6,   -1.6,   -1.7,   -1.6,   -1.6,   -1.5,   -1.4,   -1.4,   -1.3,   -1.2,   -1.1,   -0.9,   -0.8,   -0.7,   -0.7,   -0.7,   -0.8,   -0.9,   -1.0,   -1.0,   -0.9,   -1.0,   -1.0,   -0.9,   -0.8,   -0.8,   -0.8,   -0.8,   -0.9,   -0.9,   -0.9,   -0.8,   -0.8,   -0.8,   -0.8,   -0.8,   -0.7,   -0.7,   -0.7,   -0.6,   -0.5
2010/08/23 09:10,   -0.0,   -0.0,   -0.0,   -0.1,   -0.1,   -0.0,   -0.0,   -0.1,   -0.1,   -0.0,   -0.1,   -0.0,   -0.1,   -0.1,   -0.1,   -0.1,    0.1,    0.1,    0.1,    0.2,    0.2,  999.0,  999.0,  999.0,  999.0,  999.0,  999.0,   -0.8,   -0.9,    0.0,    0.1,  999.0,  999.0,  999.0,  999.0,  999.0,  999.0,   -2.5,   -2.7,   -2.6,   -2.7,   -2.7,   -2.4,   -1.8,   -1.0,   -1.0,   -1.2,   -1.3,   -1.3,   -1.3,   -1.3,   -1.4,   -1.5,   -1.5,   -1.5,   -1.6,   -1.6,   -1.7,   -1.6,   -1.6,   -1.6,   -1.5,   -1.5,   -1.5,   -1.4,   -1.4,   -1.3,   -1.3,   -1.3,   -1.2,   -1.2,   -1.2,   -1.1,   -1.1,   -1.1,   -1.1,   -1.2,   -1.1,   -1.1,   -1.1,   -1.1,   -1.0,   -0.9,   -0.9,   -0.8,   -0.8,   -0.8,   -0.8,   -0.7,   -0.6,   -0.6,   -0.5,   -0.5,   -0.4,   -0.5,   -0.6,   -0.6,   -0.6
2010/08/23 09:20,    0.0,   -0.0,   -0.0,   -0.0,    0.0,    0.0,    0.0,   -0.0,   -0.1,   -0.1,   -0.1,   -0.1,    0.0,   -0.0,   -0.0,    0.0,   -0.0,   -0.0,   -0.0,   -0.1,    0.0,    0.0,    0.2,  999.0,    0.0,    0.0,    0.1,    0.0,    0.0,    0.0,    0.0,  999.0,    0.1,  999.0,  999.0,  999.0,  999.0,  999.0,  999.0,  999.0,  999.0,  999.0,  999.0,  999.0,  999.0,  999.0,  999.0,   -0.5,   -0.8,   -0.9,   -1.0,   -1.1,   -1.2,   -1.3,   -1.3,   -1.3,   -1.4,   -1.4,   -1.5,   -1.5,   -1.5,   -1.5,   -1.5,   -1.5,   -1.4,   -1.4,   -1.4,   -1.4,   -1.3,   -1.3,   -1.3,   -1.3,   -1.3,   -1.3,   -1.2,   -1.2,   -1.2,   -1.2,   -1.2,   -1.1,   -1.2,   -1.1,   -1.1,   -1.1,   -1.2,   -1.2,   -1.1,   -1.0,   -1.0,   -1.0,   -1.0,   -0.9,   -0.9,   -0.9,   -0.8,   -0.9,   -0.9,   -0.9
2010/08/23 09:30,   -0.0,   -0.0,    0.0,    0.0,   -0.1,   -0.0,   -0.0,    0.0,   -0.0,   -0.2,   -0.4,  999.0,   -0.3,   -0.3,   -0.4,   -0.2,   -0.1,    0.1,    0.1,    0.0,    0.1,   -0.0,   -0.0,   -0.2,  999.0,    0.1,   -0.0,    0.0,    0.0,   -0.0,   -0.0,    0.0,   -0.0,    0.0,  999.0,  999.0,  999.0,  999.0,  999.0,  999.0,  999.0,  999.0,  999.0,  999.0,  999.0,  999.0,  999.0,  999.0,  999.0,   -0.8,   -0.9,   -1.0,   -1.1,   -1.1,   -1.2,   -1.2,   -1.3,   -1.2,   -1.3,   -1.4,   -1.4,   -1.4,   -1.4,   -1.4,   -1.4,   -1.3,   -1.3,   -1.3,   -1.2,   -1.3,   -1.2,   -1.2,   -1.1,   -1.1,   -1.1,   -1.1,   -1.1,   -1.2,   -1.3,   -1.2,   -1.2,   -1.1,   -1.1,   -1.0,   -1.0,   -0.9,   -0.9,   -0.9,   -0.8,   -0.8,   -0.6,   -0.5,   -0.5,   -0.5,   -0.6,   -0.5,   -0.8,   -1.2
2010/08/23 09:40,    0.0,   -0.0,   -0.0,   -0.0,   -0.1,    0.0,   -0.0,   -0.1,   -0.1,   -0.1,    0.0,   -0.4,   -0.3,   -0.2,    0.1,   -0.1,   -0.1,    0.2,    0.2,    0.1,    0.1,    0.2,  999.0,  999.0,  999.0,    0.3,    0.0,    0.0,   -0.0,   -0.0,   -0.0,    0.0,    0.0,    0.1,   -0.1,  999.0,  999.0,  999.0,  999.0,  999.0,  999.0,  999.0,  999.0,  999.0,  999.0,  999.0,  999.0,  999.0,   -0.7,   -0.9,   -1.0,   -1.1,   -1.2,   -1.2,   -1.2,   -1.2,   -1.3,   -1.2,   -1.2,   -1.3,   -1.3,   -1.3,   -1.6,   -1.6,   -1.5,   -1.5,   -1.4,   -1.4,   -1.3,   -1.2,   -1.1,   -1.1,   -1.1,   -1.1,   -1.1,   -1.1,   -1.1,   -1.1,   -1.1,   -1.1,   -1.0,   -1.0,   -0.9,   -0.8,   -0.6,   -0.5,   -0.5,   -0.4,   -0.4,   -0.4,   -0.4,   -0.5,   -0.5,   -0.5,   -0.4,   -0.4,   -0.4,  999.0
2010/08/23 09:50,    0.0,   -0.0,   -0.0,  999.0,  999.0,   -0.7,   -0.5,   -0.0,   -0.0,   -0.1,   -0.2,   -0.2,   -0.3,   -0.1,   -0.2,   -0.2,   -0.1,   -0.1,   -0.1,   -0.1,   -0.3,   -0.1,    0.1,   -0.2,    0.1,    0.0,    0.1,   -0.1,   -0.1,   -0.1,    0.2,   -0.4,   -0.6,   -0.5,   -0.5,   -0.3,  999.0,    0.5,   -0.1,   -0.0,   -0.1,    0.1,    0.2,    0.1,  999.0,  999.0,    0.2,    0.2,  999.0,   -0.5,   -0.8,   -0.9,   -1.1,   -1.3,   -1.4,   -1.4,   -1.4,   -1.4,   -1.4,   -1.3,   -1.3,   -1.3,   -1.2,   -1.3,   -1.4,   -1.3,   -1.2,   -1.1,   -1.1,   -1.1,   -1.1,   -1.1,   -1.1,   -1.1,   -1.1,   -1.1,   -1.1,   -0.9,   -0.9,   -0.8,   -0.8,   -0.8,   -0.8,   -0.8,   -0.7,   -0.7,   -0.7,   -0.6,   -0.6,   -0.6,   -0.5,   -0.5,   -0.6,   -0.6,   -0.7,   -0.7,   -0.6,   -0.8
2010/08/23 10:00,   -0.0,   -0.0,   -0.0,   -0.0,   -0.0,   -0.0,    0.0,   -0.0,   -0.0,   -0.0,    0.1,   -0.0,    0.0,    0.1,    0.0,    0.1,    0.1,    0.2,    0.3,    0.3,    0.2,    0.3,    0.4,    0.4,    0.5,    0.6,    0.6,    0.6,    0.3,    0.5,    0.7,    0.7,    0.5,    0.1,    0.1,    0.1,    0.4,    0.3,    0.4,    0.4,    0.5,    0.5,    0.5,    0.5,  999.0,  999.0,  999.0,    0.3,    0.3,    0.3,    0.2,    0.1,   -0.1,   -0.1,   -0.2,   -0.6,   -0.9,   -0.9,   -0.8,   -0.9,   -0.9,   -0.8,   -1.0,   -1.1,   -1.1,   -1.1,   -1.1,   -1.1,   -1.1,   -1.2,   -1.3,   -1.3,   -1.3,   -1.3,   -1.3,   -1.2,   -1.2,   -1.2,   -1.2,   -1.1,   -1.2,   -1.2,   -1.2,   -1.4,   -1.4,   -1.5,   -1.6,   -1.6,   -1.6,   -1.6,   -1.7,   -1.6,   -1.7,   -1.8,   -1.7,   -2.1,   -2.0,   -1.9
2010/08/23 10:10,   -0.0,   -0.0,    0.0,   -0.0,    0.0,   -0.0,    0.0,   -0.1,   -0.1,   -0.1,   -0.1,   -0.1,   -0.1,   -0.2,   -0.2,   -0.2,   -0.3,   -0.1,   -0.0,    0.0,    0.1,    0.1,    0.2,    0.1,    0.2,    0.3,    0.3,    0.2,    0.1,    0.2,    0.3,    0.4,    0.5,    0.4,    0.4,    0.4,    0.4,    0.3,    0.2,    0.2,    0.5,    0.2,    0.4,    0.3,    0.3,  999.0,  999.0,  999.0,    0.2,    0.1,  999.0,  999.0,  999.0,  999.0,  999.0,  999.0,  999.0,  999.0,   -1.1,   -1.3,   -1.5,   -1.4,   -1.0,   -1.4,   -1.4,   -2.0,   -1.9,   -1.8,   -1.9,   -2.0,   -1.8,  999.0,   -1.5,   -1.6,   -1.2,   -1.0,   -0.8,   -0.7,   -0.7,   -0.9,   -1.2,   -1.5,   -1.9,   -1.9,   -1.9,   -1.7,   -1.7,   -1.6,   -1.5,   -1.4,   -1.4,   -1.3,   -1.3,   -1.2,   -1.1,   -1.0,   -1.0,   -1.0
2010/08/23 10:20,   -0.0,   -0.0,    0.0,   -0.0,    0.0,    0.0,    0.0,    0.0,   -0.0,   -0.2,   -0.1,    0.1,   -0.2,   -0.5,    0.0,    0.0,    0.1,    0.0,    0.1,    0.2,    0.2,    0.2,    0.3,    0.3,    0.3,    0.3,    0.3,    0.1,    0.1,    0.2,    0.2,    0.2,    0.2,    0.2,    0.3,    0.4,    0.3,  999.0,  999.0,  999.0,  999.0,  999.0,  999.0,  999.0,  999.0,  999.0,  999.0,  999.0,    0.0,   -0.0,  999.0,  999.0,  999.0,  999.0,  999.0,  999.0,  999.0,  999.0,  999.0,  999.0,   -1.8,   -1.5,  999.0,   -2.2,   -2.0,   -2.1,   -1.7,   -1.9,   -1.5,   -1.6,   -1.6,   -1.6,   -1.5,   -1.3,   -1.3,   -1.3,   -1.2,   -1.2,   -1.2,   -1.3,   -1.3,   -1.3,   -1.2,   -1.2,   -1.2,   -1.2,   -1.2,   -1.2,   -1.2,   -1.2,   -1.2,   -1.2,   -1.2,   -1.2,   -1.2,   -1.1,   -1.0,   -1.0
2010/08/23 10:30,   -5.3,  999.0,   -7.0,   -7.2,   -8.0,   -7.6,   -7.1,   -6.9,   -6.9,   -6.9,   -6.2,   -6.2,   -6.6,   -5.0,  999.0,   -5.9,   -5.3,   -5.4,   -4.9,   -4.8,   -5.2,   -5.6,   -5.0,   -3.5,  999.0,   -2.8,   -2.1,   -4.7,   -5.0,   -5.2,   -3.4,  999.0,  999.0,  999.0,  999.0,  999.0,  999.0,   -3.4,   -1.8,   -2.0,   -2.5,   -1.0,   -1.2,   -1.2,   -1.1,   -1.0,   -0.0,   -1.4,   -1.9,    2.2,   -0.3,    0.7,   -1.5,   -0.4,    1.1,  999.0,   -0.6,   -2.1,   -1.1,   -1.0,   -0.2,   -1.8,   -1.7,  999.0,   -0.7,  999.0,   -0.1,  999.0,  999.0,   -1.8,   -1.4,   -1.5,   -1.5,   -2.3,   -1.6,   -1.6,   -1.6,   -1.7,   -1.8,   -1.9,   -1.5,   -1.6,   -1.4,   -1.4,   -1.3,   -1.3,   -1.3,   -1.3,   -1.2,   -1.2,   -1.1,   -1.1,   -1.1,   -1.1,   -1.0,   -0.9,   -0.8,   -0.8
2010/08/23 10:40,   -5.9,   -5.4,   -5.9,   -5.6,   -5.4,   -5.8,   -5.7,   -6.0,   -5.5,   -5.5,   -5.5,   -6.2,   -5.4,   -5.1,   -5.4,   -5.4,   -4.6,   -5.1,   -5.2,   -5.9,   -5.1,   -5.0,   -5.6,   -5.3,   -5.5,   -5.2,   -4.2,   -4.7,   -5.2,   -5.1,   -4.8,   -4.8,   -4.9,   -4.7,   -5.0,   -4.8,   -4.8,   -4.6,   -4.3,   -4.6,   -4.6,   -4.2,   -3.9,   -3.4,   -2.9,   -2.7,   -2.4,   -2.4,   -2.0,   -2.1,   -1.9,   -1.8,   -1.7,   -1.9,   -2.2,   -1.6,   -1.2,   -1.3,   -1.4,   -1.8,   -1.4,   -1.4,   -1.0,   -0.9,   -0.9,   -0.8,   -0.7,   -0.6,   -0.6,   -0.7,   -0.8,   -0.9,   -1.1,   -1.5,   -1.6,   -1.5,   -1.4,   -1.4,   -1.4,   -1.4,   -1.4,   -1.3,   -1.4,   -1.4,   -1.4,   -1.4,   -1.4,   -1.4,   -1.3,   -1.4,   -1.4,   -1.4,   -1.4,   -1.3,   -1.3,   -1.3,   -1.4,   -1.4
2010/08/23 10:50,   -4.6,   -3.7,   -3.2,   -2.8,   -2.7,   -3.7,   -3.6,   -3.7,   -3.6,   -4.1,   -4.0,   -3.2,   -2.7,   -2.6,   -3.5,   -1.4,   -4.1,   -0.5,   -1.4,   -2.8,   -5.2,   -3.8,   -5.7,   -5.6,   -5.7,   -5.2,   -5.5,   -4.4,   -4.7,   -4.7,   -5.4,   -4.7,   -4.9,   -5.2,   -5.2,   -5.1,   -4.1,   -5.1,   -5.4,   -6.5,   -4.8,   -4.9,   -6.5,   -5.3,   -4.6,   -4.2,   -3.8,   -3.5,   -3.3,   -3.7,   -2.9,   -3.2,   -2.7,   -2.4,   -2.0,   -1.6,   -1.9,   -1.8,   -1.6,   -1.8,   -1.5,   -1.6,   -1.3,   -1.4,   -1.4,   -1.6,   -1.0,   -1.4,   -1.4,   -1.5,   -1.1,   -1.2,   -1.4,   -1.5,   -1.4,   -1.2,   -1.2,   -1.3,   -1.2,   -1.2,   -1.3,   -1.3,   -1.3,   -1.4,   -1.3,   -1.0,   -1.2,   -1.2,   -1.1,   -1.0,   -0.9,   -0.8,   -0.7,   -0.7,   -0.7,   -0.6,   -0.7,   -0.7
2010/08/23 11:00,   -3.3,   -3.4,   -3.8,   -3.4,   -4.5,   -4.5,   -4.4,   -4.4,   -6.4,   -6.1,   -6.1,   -6.3,   -6.7,   -6.4,   -6.6,   -6.3,   -5.9,   -5.9,   -5.8,   -5.9,   -6.0,   -5.9,   -5.9,   -6.0,   -6.1,   -6.3,   -5.7,   -5.7,   -5.7,   -5.9,   -5.6,   -5.5,   -5.2,   -5.6,   -5.4,   -5.2,   -5.8,   -6.0,   -6.0,   -6.1,   -6.3,   -6.3,   -5.9,   -5.3,   -5.0,   -4.9,   -4.8,   -4.9,   -4.8,   -4.7,   -4.6,   -4.2,   -3.8,   -3.6,   -3.3,   -3.1,   -3.0,   -2.4,   -2.2,   -1.8,   -1.5,   -1.5,   -1.6,   -1.3,   -1.3,   -0.6,   -1.0,   -0.3,    0.4,   -0.1,   -0.0,   -0.8,   -0.6,    0.1,   -0.6,   -0.6,   -1.0,   -0.9,   -0.9,   -0.6,   -0.5,   -0.3,   -0.8,   -0.6,    0.1,   -1.2,   -1.1,   -0.3,  999.0,   -1.7,  999.0,  999.0,  999.0,   -1.1,   -2.0,   -1.0,   -0.8,   -0.8
2010/08/23 11:10,   -5.3,   -5.5,   -5.9,   -6.1,   -5.9,   -5.8,   -6.0,   -6.2,   -6.1,   -6.0,   -5.9,   -5.9,   -5.9,   -5.8,   -5.9,   -5.6,   -5.6,   -5.8,   -6.1,   -6.1,   -5.8,   -6.1,   -6.2,   -6.2,   -6.1,   -6.3,   -6.0,   -5.8,   -5.9,   -5.8,   -5.8,   -5.8,   -5.7,   -5.9,   -5.7,   -5.7,   -5.6,   -5.9,   -5.5,   -5.3,   -5.2,   -5.3,   -5.2,   -5.1,   -4.4,   -3.8,   -3.8,   -3.1,   -2.9,   -2.5,   -2.4,   -2.5,   -2.2,   -2.0,   -2.0,   -1.9,   -1.6,   -1.3,   -1.1,   -0.9,   -0.7,   -0.7,   -0.5,   -0.6,   -0.6,   -1.0,   -0.9,   -0.8,   -1.1,   -1.0,   -1.2,   -1.4,   -1.4,   -1.3,   -1.3,   -1.3,   -1.3,   -1.2,   -1.1,   -1.2,   -1.2,   -1.2,   -1.2,   -1.1,   -1.0,   -1.1,   -0.9,   -1.0,   -0.9,   -0.9,   -0.9,   -1.0,   -1.0,   -0.9,   -0.9,   -0.9,   -1.0,   -0.9
2010/08/23 11:20,   -5.1,   -5.1,   -4.7,   -4.9,   -5.0,   -4.9,   -4.9,   -4.8,   -5.2,   -5.6,   -5.5,   -5.7,   -5.5,   -5.3,   -5.4,   -5.4,   -5.3,   -5.6,   -5.9,   -6.1,   -6.0,   -6.0,   -5.9,   -5.6,   -5.2,   -5.1,   -5.1,   -4.8,   -5.0,   -5.1,   -5.3,   -5.4,   -5.7,   -5.0,   -5.7,   -5.5,   -5.6,   -5.3,   -5.3,   -4.9,   -5.1,   -5.2,   -4.8,   -4.3,   -3.8,   -3.3,   -3.0,   -2.9,   -2.7,   -2.5,   -2.4,   -2.7,   -2.3,   -2.6,   -2.5,   -2.3,   -2.3,   -2.1,   -1.8,   -1.7,   -1.9,   -1.6,   -1.7,   -1.3,   -1.1,   -1.1,   -0.7,   -0.5,   -0.3,   -0.1,   -0.2,   -0.2,   -0.2,   -0.2,   -0.1,    0.1,    0.1,    0.1,   -0.7,   -0.6,   -0.6,   -0.6,   -0.5,   -0.6,   -0.7,   -0.6,   -0.7,   -0.7,   -0.8,   -0.7,   -0.8,   -0.7,   -0.7,   -0.9,   -1.1,   -1.2,   -1.3,   -1.3
2010/08/23 11:30,   -2.7,   -4.3,   -5.3,   -5.3,   -5.5,   -5.4,   -3.3,   -2.8,   -2.8,   -3.4,    0.5,   -7.4,   -7.3,   -2.4,   -2.1,   -4.5,   -4.2,   -4.3,   -4.4,   -3.4,   -3.7,   -3.5,   -3.0,   -2.8,   -2.8,   -2.8,   -3.0,   -4.0,   -4.0,   -6.3,   -3.8,   -2.6,   -6.3,  999.0,   -4.1,   -4.3,   -4.9,   -5.2,   -3.8,   -5.1,   -4.0,   -4.2,   -4.1,   -3.3,   -3.2,   -2.8,   -2.3,   -2.1,   -2.2,   -2.1,   -1.9,   -2.2,   -2.5,   -2.3,   -2.4,   -1.9,   -2.0,   -1.9,   -1.9,   -1.9,   -1.9,   -1.7,   -1.7,   -1.6,   -1.6,   -1.6,   -1.4,   -1.5,   -1.7,   -1.5,   -1.4,   -1.4,   -1.4,   -1.3,   -1.4,   -1.0,   -1.4,   -1.0,   -1.1,   -1.4,   -1.2,   -1.2,   -1.5,   -0.9,   -1.3,   -1.1,   -1.6,   -1.5,   -1.2,   -1.1,   -0.7,   -0.8,   -1.5,   -1.2,   -1.1,   -0.8,   -0.7,   -0.4
2010/08/23 11:40,   -0.0,   -0.0,   -0.0,   -0.1,   -0.1,   -0.0,   -0.0,   -0.0,    0.0,   -0.0,    0.1,    0.0,    0.0,   -0.0,    0.1,    0.1,    0.2,    0.3,    0.3,    0.3,    0.4,    0.2,    0.3,    0.3,    0.2,    0.2,    0.3,    0.3,    0.2,    0.1,    0.0,  999.0,  999.0,    0.3,    0.3,  999.0,  999.0,  999.0,  999.0,  999.0,  999.0,  999.0,  999.0,  999.0,  999.0,  999.0,  999.0,  999.0,  999.0,  999.0,  999.0,   -1.2,   -1.2,   -1.2,   -1.2,   -1.3,   -1.3,   -1.4,   -1.5,   -1.5,   -1.6,   -1.7,   -1.8,   -1.7,   -1.7,   -1.6,   -1.6,   -1.7,   -1.7,   -1.8,   -1.8,   -1.8,   -1.9,   -2.0,   -1.9,   -1.7,   -1.6,   -1.6,   -1.5,   -1.5,   -1.5,   -1.5,   -1.4,   -1.4,   -1.4,   -1.4,   -1.4,   -1.4,   -1.5,   -1.6,   -1.6,   -1.7,   -1.8,   -1.8,   -1.8,   -1.8,   -1.7,   -1.6
2010/08/23 11:50,   -0.0,   -0.0,   -0.0,   -0.0,   -0.0,    0.0,   -0.0,    0.0,   -0.0,    0.0,    0.1,    0.1,    0.1,    0.2,    0.2,    0.2,    0.2,    0.2,    0.1,    0.2,    0.2,    0.2,    0.2,    0.2,    0.2,    0.2,    0.3,    0.2,    0.2,    0.1,    0.3,    0.3,    0.4,    0.3,  999.0,  999.0,  999.0,  999.0,  999.0,  999.0,  999.0,  999.0,  999.0,  999.0,  999.0,  999.0,  999.0,  999.0,  999.0,   -0.9,   -1.0,   -1.0,   -1.1,   -1.1,   -1.2,   -1.2,   -1.2,   -1.3,   -1.3,   -1.3,   -1.4,   -1.4,   -1.5,   -1.5,   -1.6,   -1.6,   -1.6,   -1.6,   -1.5,   -1.6,   -1.6,   -1.7,   -1.8,   -1.7,   -1.7,   -1.6,   -1.5,   -1.5,   -1.5,   -1.5,   -1.5,   -1.4,   -1.3,   -1.3,   -1.3,   -1.3,   -1.2,   -1.2,   -1.2,   -1.3,   -1.3,   -1.4,   -1.4,   -1.4,   -1.4,   -1.3,   -1.3,   -1.2
2010/08/23 12:00,   -0.0,    0.0,   -0.0,   -0.0,    0.0,    0.0,    0.0,   -0.1,   -0.1,   -0.1,   -0.0,    0.1,    0.0,    0.0,    0.1,    0.1,    0.1,    0.2,    0.1,    0.1,    0.3,    0.2,    0.2,    0.2,    0.2,    0.2,    0.1,    0.1,    0.0,    0.1,    0.1,    0.1,    0.1,    0.1,    0.2,    0.0,  999.0,  999.0,  999.0,  999.0,  999.0,  999.0,  999.0,  999.0,  999.0,  999.0,  999.0,  999.0,  999.0,  999.0,  999.0,  999.0,  999.0,  999.0,  999.0,   -1.1,   -1.0,   -1.1,   -1.2,   -1.2,   -1.2,   -1.3,   -1.3,   -1.3,   -1.4,   -1.3,   -1.4,   -1.4,   -1.4,   -1.4,   -1.5,   -1.6,   -1.7,   -1.7,   -1.6,   -1.6,   -1.6,   -1.5,   -1.5,   -1.4,   -1.4,   -1.3,   -1.3,   -1.3,   -1.3,   -1.3,   -1.3,   -1.3,   -1.3,   -1.2,   -1.1,   -1.1,   -1.1,   -1.2,   -1.2,   -1.1,   -1.1,   -1.1
2010/08/23 12:10,   -0.0,   -0.0,   -0.0,   -0.0,   -0.1,   -0.0,   -0.0,   -0.2,   -0.0,   -0.4,   -0.4,   -0.1,   -0.0,    0.0,    0.1,    0.0,    0.0,    0.1,    0.1,   -0.0,   -0.2,   -0.0,   -0.1,    0.0,   -0.0,    0.0,   -0.1,    0.0,    0.0,    0.0,    0.1,    0.2,    0.1,    0.1,    0.2,    0.2,    0.4,  999.0,  999.0,  999.0,  999.0,  999.0,  999.0,  999.0,  999.0,  999.0,  999.0,  999.0,  999.0,  999.0,  999.0,  999.0,  999.0,  999.0,   -1.2,   -1.2,   -1.2,   -1.2,   -1.3,   -1.3,   -1.3,   -1.3,   -1.4,   -1.4,   -1.4,   -1.4,   -1.4,   -1.5,   -1.5,   -1.5,   -1.5,   -1.6,   -1.6,   -1.6,   -1.5,   -1.5,   -1.4,   -1.3,   -1.3,   -1.3,   -1.3,   -1.3,   -1.3,   -1.2,   -1.2,   -1.2,   -1.3,   -1.2,   -1.2,   -1.2,   -1.2,   -1.1,   -1.1,   -1.1,   -1.1,   -1.0,   -1.0,   -1.0
2010/08/23 12:20,   -0.0,   -0.0,   -0.0,   -0.1,   -0.2,   -0.0,   -0.1,   -0.1,   -0.1,   -0.1,   -0.2,   -0.2,   -0.1,   -0.1,   -0.2,   -0.3,   -0.1,   -0.0,    0.0,    0.0,    0.1,    0.1,    0.2,    0.3,    0.1,    0.2,    0.1,   -0.0,    0.0,  999.0,    0.1,   -0.0,    0.1,    0.0,    0.2,    0.1,    0.1,    0.3,  999.0,  999.0,  999.0,  999.0,  999.0,  999.0,  999.0,  999.0,  999.0,  999.0,  999.0,  999.0,  999.0,  999.0,  999.0,   -1.0,   -1.1,   -1.0,   -1.0,   -1.1,   -1.0,   -1.0,   -1.0,   -1.1,   -1.1,   -1.1,   -1.1,   -1.2,   -1.2,   -1.2,   -1.3,   -1.3,   -1.3,   -1.4,   -1.4,   -1.4,   -1.5,   -1.5,   -1.4,   -1.4,   -1.3,   -1.4,   -1.3,   -1.3,   -1.2,   -1.2,   -1.2,   -1.2,   -1.1,   -1.1,   -1.1,   -1.1,   -1.1,   -1.0,   -1.0,   -0.9,   -0.9,   -0.9,   -0.9,   -0.8
2010/08/23 12:30,   -1.7,  999.0,  999.0,  999.0,  999.0,  999.0,  999.0,  999.0,   -0.3,  999.0,   -0.9,   -0.8,   -0.1,   -1.1,   -1.1,   -1.2,   -0.6,   -0.6,   -0.5,   -0.8,   -0.4,  999.0,   -0.2,    0.1,   -0.3,    0.1,   -0.0,   -0.2,   -0.1,    0.0,    0.0,    0.0,    0.2,    0.4,    0.2,  999.0,  999.0,  999.0,  999.0,  999.0,  999.0,  999.0,  999.0,  999.0,  999.0,  999.0,  999.0,  999.0,  999.0,  999.0,  999.0,  999.0,  999.0,  999.0,  999.0,   -0.6,   -1.1,   -1.1,   -1.1,   -1.1,   -1.1,   -1.0,   -1.1,   -1.1,   -1.1,   -1.1,   -1.1,   -1.2,   -1.2,   -1.2,   -1.2,   -1.2,   -1.3,   -1.3,   -1.2,   -1.3,   -1.3,   -1.3,   -1.2,   -1.2,   -1.2,   -1.2,   -1.2,   -1.2,   -1.2,   -1.2,   -1.2,   -1.2,   -1.2,   -1.2,   -1.2,   -1.1,   -1.1,   -1.1,   -1.0,   -1.0,   -1.0,   -1.0
2010/08/23 12:40,   -0.0,   -0.0,   -0.0,   -0.1,   -0.1,   -0.0,    0.0,    0.1,    0.1,    0.0,    0.1,    0.0,   -0.1,   -0.1,   -0.1,    0.0,   -0.5,   -0.0,    0.2,    0.0,  999.0,    0.2,  999.0,    0.5,    0.2,    0.5,    0.2,    0.2,   -0.0,    0.1,    0.1,    0.1,    0.0,    0.2,   -0.1,  999.0,  999.0,  999.0,  999.0,  999.0,  999.0,  999.0,  999.0,  999.0,  999.0,  999.0,  999.0,  999.0,  999.0,  999.0,  999.0,  999.0,  999.0,  999.0,  999.0,   -0.0,  999.0,  999.0,   -0.8,   -0.9,   -0.9,   -0.8,   -0.8,   -0.7,   -0.8,   -0.7,   -0.7,   -0.7,   -0.7,   -0.7,   -0.7,   -0.8,   -0.8,   -0.8,   -0.8,   -0.8,   -0.8,   -0.9,   -1.0,   -1.0,   -1.0,   -1.1,   -1.1,   -1.1,   -1.1,   -1.1,   -1.1,   -1.1,   -1.1,   -1.1,   -1.1,   -1.0,   -1.0,   -1.0,   -0.9,   -0.9,   -0.9,   -0.9
2010/08/23 12:50,   -0.0,    0.0,   -0.0,   -0.1,   -0.1,   -0.0,   -0.0,   -0.1,   -0.1,   -0.1,   -0.1,   -0.1,   -0.1,   -0.1,   -0.1,   -0.1,   -0.0,   -0.0,    0.0,    0.1,    0.2,    0.1,    0.2,    0.1,    0.1,    0.2,    0.1,    0.1,    0.0,    0.1,    0.0,    0.1,   -0.0,    0.1,    0.1,  999.0,  999.0,  999.0,  999.0,  999.0,  999.0,  999.0,  999.0,  999.0,  999.0,  999.0,  999.0,  999.0,  999.0,  999.0,  999.0,  999.0,  999.0,  999.0,  999.0,  999.0,  999.0,  999.0,  999.0,  999.0,  999.0,  999.0,  999.0,  999.0,  999.0,  999.0,  999.0,  999.0,  999.0,  999.0,  999.0,  999.0,  999.0,   -0.8,  999.0,  999.0,   -0.8,   -0.9,   -0.8,   -0.9,   -0.9,   -1.0,   -1.0,   -1.0,   -0.9,   -1.0,   -1.0,   -0.9,   -0.9,   -0.8,   -0.9,   -1.0,   -0.8,   -0.8,   -0.8,   -0.9,   -0.8,   -0.8
2010/08/23 13:00,   -0.0,   -0.1,   -0.4,   -0.0,   -0.7,   -0.1,   -0.1,   -0.0,   -0.0,   -0.1,   -0.2,   -0.1,   -0.1,   -0.1,   -0.3,    0.0,    0.1,   -0.0,   -0.1,   -0.1,    0.0,   -0.2,   -0.2,   -0.1,   -0.1,   -0.0,   -0.1,   -0.1,   -0.1,   -0.0,    0.0,   -0.0,    0.0,   -0.1,    0.0,  999.0,  999.0,  999.0,  999.0,  999.0,  999.0,  999.0,  999.0,  999.0,  999.0,  999.0,  999.0,  999.0,  999.0,  999.0,  999.0,  999.0,  999.0,  999.0,  999.0,  999.0,  999.0,    0.2,    0.4,    0.5,  999.0,  999.0,  999.0,  999.0,  999.0,  999.0,  999.0,  999.0,  999.0,  999.0,  999.0,  999.0,  999.0,  999.0,  999.0,  999.0,   -0.9,  999.0,   -0.8,   -0.8,   -0.8,   -0.9,   -0.8,   -0.7,  999.0,   -0.5,  999.0,  999.0,  999.0,  999.0,  999.0,  999.0,  999.0,  999.0,  999.0,  999.0,  999.0,  999.0
2010/08/23 13:10,    0.0,    0.0,    0.0,   -0.0,   -0.3,   -0.1,   -0.4,   -0.1,   -0.5,   -0.3,    0.4,   -0.1,   -0.4,   -0.0,   -0.4,   -0.1,   -0.3,   -0.0,   -0.3,   -0.3,   -0.3,   -0.2,   -0.1,   -0.0,   -0.1,   -0.2,   -0.2,   -0.2,   -0.1,   -0.1,   -0.1,   -0.1,   -0.0,   -0.2,   -0.2,   -0.3,   -0.3,  999.0,  999.0,  999.0,  999.0,  999.0,  999.0,  999.0,  999.0,  999.0,  999.0,  999.0,  999.0,  999.0,  999.0,  999.0,  999.0,  999.0,  999.0,  999.0,    0.2,  999.0,  999.0,  999.0,  999.0,  999.0,  999.0,  999.0,  999.0,  999.0,  999.0,  999.0,  999.0,  999.0,  999.0,  999.0,  999.0,  999.0,  999.0,  999.0,  999.0,  999.0,  999.0,  999.0,  999.0,  999.0,  999.0,  999.0,  999.0,  999.0,  999.0,  999.0,  999.0,  999.0,  999.0,  999.0,  999.0,  999.0,  999.0,  999.0,  999.0,  999.0
2010/08/23 13:20,   -2.0,   -2.0,   -2.0,   -1.9,   -1.9,   -2.0,   -1.9,   -1.8,   -1.8,   -1.6,   -1.9,   -1.6,   -1.6,   -1.5,   -1.6,   -0.8,   -2.1,   -1.9,   -1.9,   -2.0,   -1.3,   -1.4,   -1.4,   -1.0,   -1.9,   -2.2,   -2.3,   -2.2,   -2.3,   -2.1,   -2.1,   -2.3,   -2.0,   -2.1,   -1.7,   -1.5,   -1.4,   -1.6,   -1.2,   -0.7,   -0.7,   -0.3,   -0.2,   -0.1,   -0.3,   -0.7,   -0.7,  999.0,  999.0,   -1.6,   -1.3,   -0.9,   -0.8,   -0.5,    0.0,    0.1,    0.2,    0.2,  999.0,    0.3,    0.2,  999.0,  999.0,  999.0,  999.0,  999.0,  999.0,  999.0,  999.0,  999.0,  999.0,  999.0,  999.0,  999.0,  999.0,  999.0,  999.0,  999.0,  999.0,  999.0,  999.0,  999.0,  999.0,  999.0,  999.0,  999.0,  999.0,  999.0,   -0.9,   -0.9,   -1.0,   -0.9,   -0.8,   -0.7,  999.0,  999.0,  999.0,  999.0
2010/08/23 13:30,   -4.3,   -4.4,   -4.3,   -4.3,   -4.4,   -4.8,   -5.0,   -4.5,   -4.7,   -5.0,   -5.3,   -4.9,   -5.4,   -5.4,   -5.4,   -5.4,   -5.6,   -5.5,   -5.8,   -5.8,   -6.0,   -5.9,   -6.1,   -6.1,   -5.9,   -6.2,   -5.9,   -6.1,   -6.1,   -5.9,   -5.8,   -5.9,   -5.8,   -5.8,   -5.4,   -5.4,   -5.2,   -5.7,   -5.3,   -5.4,   -5.4,   -4.8,   -4.5,   -3.6,   -2.6,   -2.4,   -2.0,   -1.9,   -1.7,   -1.6,   -1.7,   -1.6,   -1.6,   -1.4,   -1.3,   -1.3,   -1.2,   -1.1,   -1.0,   -0.9,   -0.6,   -0.7,   -0.7,   -0.6,   -0.6,   -0.5,   -0.3,   -0.4,   -0.1,   -0.1,   -0.1,    0.0,   -0.2,   -0.0,    0.3,   -0.1,    0.2,    0.4,    0.1,    0.1,   -0.4,   -0.5,   -0.6,   -0.5,   -0.3,   -0.5,   -0.9,   -0.9,   -0.9,   -0.8,   -0.9,   -0.8,   -0.7,  999.0,   -0.8,   -0.9,   -0.8,   -0.9
2010/08/23 13:40,   -6.7,   -6.6,   -6.6,   -6.5,   -6.6,   -6.5,   -6.5,   -6.6,   -6.6,   -6.7,   -6.7,   -6.7,   -6.7,   -6.7,   -6.7,   -6.7,   -6.8,   -6.8,   -6.6,   -6.6,   -6.7,   -6.6,   -6.7,   -6.7,   -6.8,   -6.7,   -6.9,   -7.0,   -7.1,   -7.1,   -7.2,   -7.2,   -7.3,   -7.3,   -7.4,   -7.6,   -7.7,   -7.7,   -7.7,   -7.6,   -7.5,   -7.2,   -5.6,   -3.7,  999.0,   -1.8,   -1.8,   -1.7,   -1.8,   -1.8,   -1.7,   -1.7,   -1.6,   -1.5,   -1.4,   -1.4,   -1.4,   -1.3,   -1.2,   -1.2,   -1.3,   -1.3,   -1.3,   -1.3,   -1.2,   -1.0,   -0.9,   -0.8,   -0.7,   -0.6,   -0.6,   -0.5,   -0.5,   -0.7,   -0.6,   -0.7,   -0.6,   -0.8,   -0.8,   -0.8,   -0.8,   -0.7,   -0.7,   -0.6,   -0.7,   -0.6,   -0.5,   -0.7,   -0.7,   -0.6,   -0.5,   -0.5,   -0.5,   -0.5,   -0.4,   -0.4,   -0.3,   -0.2
2010/08/23 13:50,   -7.1,   -7.1,   -7.2,   -7.3,   -7.2,   -7.2,   -7.2,   -7.3,   -7.1,   -7.2,   -7.1,   -7.1,   -7.0,   -7.2,   -7.0,   -7.0,   -7.1,   -7.1,   -7.2,   -7.2,   -7.3,   -7.2,   -7.2,   -7.3,   -7.2,   -7.3,   -7.4,   -7.3,   -7.4,   -7.4,   -7.4,   -7.4,   -7.5,   -7.5,   -7.5,   -7.6,   -7.6,   -7.6,   -7.7,   -7.7,   -7.6,   -7.0,   -5.0,   -3.7,  999.0,   -1.8,   -1.7,   -1.7,   -1.6,   -1.6,   -1.6,   -1.6,   -1.6,   -1.5,   -1.5,   -1.5,   -1.5,   -1.5,   -1.4,   -1.4,   -1.4,   -1.5,   -1.6,   -1.6,   -1.5,   -1.4,   -1.4,   -1.3,   -1.3,   -1.2,   -1.2,   -1.2,   -1.2,   -1.1,   -1.1,   -1.0,   -0.9,   -0.8,   -0.7,   -0.7,   -0.8,   -0.9,   -0.9,   -0.9,   -0.9,   -0.9,   -0.9,   -0.8,   -0.8,   -0.7,   -0.5,   -0.4,   -0.3,   -0.1,   -0.0,    0.0,   -0.0,   -0.1
2010/08/23 14:00,   -2.0,   -2.1,  999.0,   -2.7,   -2.6,   -2.5,   -2.5,   -2.7,   -1.7,   -3.8,   -3.7,   -3.6,  999.0,  999.0,  999.0,   -4.6,   -4.5,   -4.5,   -4.4,   -4.4,   -4.3,   -5.3,   -5.5,   -5.4,   -5.3,   -4.5,   -5.3,   -4.5,   -4.5,   -4.9,   -4.2,   -5.1,   -5.5,   -5.4,   -5.3,   -5.3,   -5.3,  999.0,  999.0,  999.0,  999.0,   -5.0,   -4.5,  999.0,  999.0,   -1.5,   -1.5,   -1.4,   -1.5,   -1.5,   -1.5,   -1.5,   -1.4,   -1.4,   -1.4,   -1.4,   -1.5,   -1.6,   -1.6,   -1.5,   -1.5,   -1.5,   -1.4,   -1.4,   -1.4,   -1.4,   -1.3,   -1.3,   -1.3,   -1.2,   -1.1,   -1.1,   -1.1,   -1.0,   -1.0,   -1.0,   -1.0,   -0.9,   -0.9,   -1.0,   -1.0,   -1.0,   -1.0,   -1.1,   -1.0,   -1.0,   -1.0,   -0.9,   -0.9,   -0.8,   -0.7,   -0.6,   -0.7,   -0.6,   -0.5,   -0.5,   -0.4,   -0.4
2010/08/23 14:10,   -2.0,   -2.0,   -2.4,   -1.9,   -2.2,   -2.2,   -1.7,   -1.7,   -1.7,   -1.7,   -1.6,   -1.6,   -0.9,    0.1,   -0.8,   -1.6,   -1.7,   -2.1,   -2.1,   -2.0,   -4.2,   -2.8,   -4.2,   -4.0,   -4.0,   -4.0,   -4.3,   -4.2,   -4.2,   -4.2,   -4.1,   -4.1,   -4.1,   -4.1,   -4.0,   -4.0,   -3.9,   -3.9,   -3.8,   -3.6,   -3.7,   -3.5,   -3.4,   -3.4,   -2.6,   -1.6,   -1.1,   -1.0,   -1.0,   -1.2,   -1.2,   -1.3,   -1.3,   -1.3,   -1.3,   -1.3,   -1.2,   -1.1,   -1.1,   -1.0,   -1.0,   -1.1,   -1.0,   -0.9,   -0.9,   -0.7,   -0.7,   -0.7,   -0.6,   -0.6,   -0.6,   -0.6,   -0.8,   -0.9,   -1.0,   -1.0,   -0.9,   -0.8,   -0.8,   -0.7,   -0.7,  999.0,  999.0,   -0.8,   -0.9,   -0.9,   -0.9,   -0.9,   -0.8,  999.0,  999.0,  999.0,   -0.6,   -0.6,   -0.7,   -0.7,   -0.7,  999.0
2010/08/23 14:20,   -0.7,   -0.8,   -0.7,   -0.7,   -0.8,   -0.7,   -0.7,   -1.4,   -1.9,   -1.8,   -1.2,   -1.2,   -2.3,   -1.7,   -1.6,   -1.6,   -1.5,   -1.4,   -1.3,   -1.2,   -1.1,   -1.0,   -1.0,   -1.0,   -1.0,   -1.1,   -2.5,   -1.4,   -2.1,   -1.7,   -1.9,   -1.8,   -1.4,   -2.3,   -1.9,   -2.1,   -2.6,   -1.9,   -0.9,   -1.8,   -1.3,   -0.8,  999.0,  999.0,   -1.9,  999.0,   -0.8,   -0.4,   -0.5,   -0.6,  999.0,  999.0,   -0.5,  999.0,   -0.4,   -0.3,   -0.2,   -0.3,   -0.2,   -0.4,   -0.4,   -0.3,   -0.6,   -0.6,   -0.6,   -0.6,  999.0,   -0.8,  999.0,   -0.5,   -0.5,   -0.5,   -0.5,   -0.4,   -0.5,   -0.5,   -0.5,  999.0,  999.0,  999.0,  999.0,  999.0,  999.0,  999.0,  999.0,  999.0,  999.0,  999.0,  999.0,  999.0,  999.0,  999.0,  999.0,  999.0,  999.0,  999.0,  999.0,  999.0
2010/08/23 14:30,   -4.9,   -5.0,   -4.8,   -4.6,   -4.7,   -5.0,   -5.0,   -4.9,   -4.8,   -5.3,   -5.2,   -5.2,   -5.1,   -5.5,   -5.6,   -5.2,   -5.1,   -5.2,   -4.9,   -5.0,   -4.8,   -4.7,   -4.7,   -4.8,   -4.9,   -5.4,   -5.2,   -5.7,   -6.0,   -5.8,   -6.0,   -5.7,   -5.8,   -6.2,   -6.0,   -6.1,   -6.1,   -5.8,   -5.7,   -5.8,   -5.6,   -5.8,   -4.9,  999.0,  999.0,   -1.7,   -1.6,   -1.4,   -1.3,   -1.3,   -1.2,   -1.0,   -0.9,   -0.7,   -0.7,   -0.6,   -0.7,   -0.6,   -0.3,   -0.3,   -0.5,   -0.5,   -0.4,  999.0,  999.0,  999.0,  999.0,  999.0,  999.0,  999.0,  999.0,  999.0,  999.0,  999.0,  999.0,  999.0,  999.0,  999.0,  999.0,  999.0,  999.0,  999.0,  999.0,  999.0,  999.0,  999.0,  999.0,  999.0,  999.0,  999.0,  999.0,  999.0,  999.0,  999.0,  999.0,  999.0,  999.0,  999.0
2010/08/23 14:40,   -5.1,   -5.1,   -5.2,   -5.3,   -5.1,   -5.0,   -5.1,   -5.2,   -5.2,   -5.3,   -5.4,   -5.5,   -5.3,   -5.6,   -5.5,   -5.5,   -5.6,   -5.6,   -5.5,   -5.7,   -5.6,   -5.8,   -5.9,   -6.0,   -6.1,   -5.8,   -6.1,   -6.1,   -6.0,   -6.2,   -6.1,   -6.0,   -6.1,   -5.9,   -6.1,   -6.2,   -6.2,   -6.3,   -6.2,   -6.3,   -6.3,   -6.0,   -4.9,  999.0,   -2.4,   -1.8,   -1.6,   -1.5,   -1.4,   -1.2,   -1.1,   -1.0,   -1.0,   -1.0,   -0.9,   -0.8,   -0.9,   -1.0,   -1.0,   -0.9,   -0.8,   -0.9,   -0.9,   -0.6,  999.0,   -0.6,   -1.0,   -1.0,   -1.0,   -0.9,   -1.0,  999.0,  999.0,  999.0,  999.0,  999.0,  999.0,  999.0,  999.0,  999.0,  999.0,  999.0,  999.0,  999.0,  999.0,  999.0,  999.0,  999.0,  999.0,  999.0,  999.0,  999.0,  999.0,  999.0,  999.0,  999.0,  999.0,  999.0
2010/08/23 14:50,   -5.3,   -3.3,   -4.3,   -3.5,   -4.3,   -4.2,   -4.5,   -4.3,   -4.3,   -4.4,   -4.5,   -4.4,   -4.2,   -4.4,   -4.4,   -5.5,   -5.5,   -5.3,   -5.5,   -5.5,   -5.5,   -5.4,   -5.3,   -5.3,   -5.3,   -5.3,   -5.2,   -5.2,   -5.2,   -5.3,   -5.3,   -5.3,   -5.3,   -5.2,   -5.4,   -5.1,   -5.2,   -5.2,   -5.2,   -5.3,   -5.3,   -5.4,   -4.7,   -3.4,  999.0,   -1.6,   -1.4,   -1.4,   -1.3,   -1.3,   -1.3,   -1.2,   -1.1,   -1.0,   -1.0,   -0.9,   -0.8,   -0.8,   -0.8,   -0.6,   -0.7,   -0.6,   -0.7,   -0.7,   -0.7,   -0.8,   -0.8,   -0.8,   -0.7,   -0.8,   -0.8,   -0.9,   -1.0,   -0.8,  999.0,  999.0,  999.0,  999.0,  999.0,  999.0,  999.0,  999.0,  999.0,  999.0,  999.0,  999.0,  999.0,  999.0,  999.0,  999.0,  999.0,  999.0,  999.0,  999.0,  999.0,  999.0,  999.0,  999.0
2010/08/23 15:00,   -0.0,   -0.1,   -0.0,   -0.1,   -0.2,   -0.0,   -0.0,   -0.1,   -0.1,   -0.0,    0.1,    0.1,    0.1,   -0.8,   -0.8,   -0.8,   -0.6,   -0.6,   -0.5,   -0.8,   -2.4,   -2.3,   -2.5,   -2.4,   -2.4,   -3.1,   -2.8,   -3.1,   -2.7,   -2.8,   -2.9,   -2.8,   -2.6,   -3.2,   -3.1,   -2.5,   -3.2,   -3.1,   -3.1,   -3.0,   -2.9,   -2.8,   -2.0,   -2.8,   -2.2,   -1.3,   -1.0,   -1.0,   -1.0,   -1.1,   -1.0,   -1.0,   -0.9,   -0.9,   -0.9,   -0.8,   -0.8,   -0.8,   -0.8,   -0.8,   -0.8,   -0.8,   -0.8,   -0.8,   -0.8,   -0.9,   -0.9,   -0.8,   -0.7,   -0.7,   -0.7,   -0.6,   -0.6,   -0.9,  999.0,  999.0,  999.0,  999.0,  999.0,  999.0,  999.0,  999.0,  999.0,  999.0,  999.0,  999.0,  999.0,  999.0,  999.0,  999.0,  999.0,  999.0,  999.0,  999.0,  999.0,  999.0,  999.0,  999.0
2010/08/23 15:10,   -0.0,   -0.1,   -0.0,   -0.0,   -0.1,   -0.1,   -0.0,   -0.2,   -0.1,   -0.0,    0.0,   -0.8,   -0.4,   -0.4,    0.1,    0.2,   -0.1,    0.2,    0.3,    0.3,   -0.1,   -0.9,   -1.1,   -0.7,   -0.8,   -1.6,   -2.4,   -1.3,   -0.8,   -1.2,   -0.9,   -1.5,   -1.2,   -2.1,   -1.3,   -1.3,   -0.9,   -2.1,   -2.2,   -2.2,  999.0,   -2.2,  999.0,  999.0,  999.0,   -1.1,   -0.8,   -0.6,   -0.6,   -0.6,   -0.7,   -0.6,   -0.6,   -0.6,   -0.6,   -0.6,   -0.8,   -0.8,   -0.7,   -0.8,   -0.7,   -0.8,   -0.8,   -0.8,   -0.8,   -0.8,   -0.7,   -0.7,   -0.6,   -0.6,   -0.7,   -0.7,   -0.7,   -0.8,   -0.8,   -0.8,   -0.8,   -0.8,   -0.8,   -0.9,   -1.0,   -0.7,  999.0,  999.0,  999.0,  999.0,   -0.5,   -0.5,  999.0,  999.0,  999.0,  999.0,  999.0,  999.0,  999.0,  999.0,  999.0,  999.0
2010/08/23 15:20,    0.0,    0.0,   -0.0,    0.0,    0.1,    0.0,    0.0,   -0.0,   -0.1,   -0.1,   -0.1,   -0.1,   -0.2,   -0.2,   -0.0,    0.1,    0.1,    0.1,    0.1,    0.1,    0.2,    0.3,    0.1,  999.0,  999.0,  999.0,  999.0,    0.0,   -0.0,   -0.0,  999.0,  999.0,  999.0,  999.0,  999.0,  999.0,  999.0,  999.0,   -0.1,  999.0,  999.0,  999.0,  999.0,  999.0,  999.0,  999.0,  999.0,  999.0,  999.0,  999.0,  999.0,   -0.3,   -0.5,   -0.6,   -0.6,   -0.5,  999.0,  999.0,  999.0,   -0.7,  999.0,   -0.7,   -0.9,   -0.9,   -0.9,   -0.9,   -0.9,   -0.9,   -0.9,   -0.9,   -0.9,   -0.9,   -0.9,   -0.9,   -0.8,   -0.8,   -0.8,   -0.8,   -0.8,   -0.8,   -0.8,   -0.8,   -0.7,   -0.8,   -0.7,   -0.6,   -0.6,   -0.6,   -0.6,   -0.4,   -0.4,   -0.4,   -0.3,   -0.4,   -0.1,  999.0,  999.0,  999.0
2010/08/23 15:30,   -0.0,   -0.0,   -0.0,    0.0,   -0.1,   -0.1,   -0.0,   -0.2,   -0.3,   -0.4,   -0.3,   -0.3,   -0.1,   -0.2,   -0.1,   -0.1,   -0.1,   -1.1,   -1.5,   -1.4,   -1.4,   -1.3,   -1.2,   -1.2,   -0.9,   -1.3,   -1.2,   -1.5,   -1.5,   -1.5,   -1.8,   -1.8,   -1.9,   -1.8,   -1.5,   -1.3,   -1.8,   -1.7,   -1.2,  999.0,   -1.1,   -1.0,   -1.6,   -1.6,   -1.4,   -0.9,  999.0,  999.0,  999.0,  999.0,  999.0,  999.0,  999.0,  999.0,  999.0,  999.0,  999.0,  999.0,  999.0,  999.0,  999.0,  999.0,  999.0,   -1.0,   -1.0,   -1.0,   -1.0,   -1.0,   -1.0,   -1.0,   -1.0,   -1.0,   -0.9,   -0.9,   -0.8,   -0.8,   -0.8,   -0.8,   -0.8,   -0.7,   -0.7,   -0.6,   -0.6,   -0.5,   -0.5,   -0.5,   -0.5,   -0.6,   -0.5,   -0.5,   -0.5,   -0.5,   -0.5,   -0.4,   -0.6,   -0.4,  999.0,  999.0
2010/08/23 15:40,   -0.0,   -0.0,   -0.0,   -0.0,  999.0,   -0.1,  999.0,  999.0,   -2.4,   -2.5,   -2.4,   -2.4,   -2.4,   -2.4,   -2.5,   -2.4,   -2.5,   -2.5,   -2.4,   -2.4,   -2.3,   -2.3,   -2.3,   -2.2,   -2.1,   -2.2,   -2.1,   -2.1,   -2.1,   -2.0,   -2.0,   -1.9,   -1.6,   -1.7,   -1.6,   -1.7,   -1.7,   -1.6,   -1.6,   -1.5,   -1.6,   -1.8,   -1.4,   -1.5,   -1.0,   -0.6,   -0.6,   -0.7,   -0.5,  999.0,  999.0,  999.0,  999.0,  999.0,  999.0,  999.0,  999.0,  999.0,  999.0,  999.0,  999.0,   -0.9,   -0.9,   -0.9,   -0.9,   -0.8,   -0.8,   -0.8,   -0.8,   -0.8,   -0.8,   -0.8,   -0.8,   -0.8,   -0.8,   -0.8,   -0.9,   -0.8,   -0.8,   -0.8,   -0.8,   -0.8,   -0.8,   -0.8,   -0.8,   -0.7,   -0.7,   -0.7,   -0.7,   -0.7,   -0.7,   -0.7,   -0.7,   -0.6,   -0.6,   -0.6,   -0.6,   -0.6
2010/08/23 15:50,   -0.0,   -0.1,   -0.3,   -0.0,   -0.1,  999.0,    0.0,   -0.1,  999.0,  999.0,  999.0,  999.0,  999.0,  999.0,   -1.8,   -1.9,   -1.9,   -1.9,   -1.8,   -1.7,   -1.7,   -1.7,   -1.7,   -1.7,   -1.6,   -1.6,   -1.5,   -1.7,   -1.6,   -1.7,   -1.7,   -1.7,   -1.7,   -1.7,   -1.8,   -1.9,   -1.7,   -2.0,   -2.0,   -2.0,   -2.0,   -2.0,   -1.9,   -1.9,   -1.7,   -1.1,   -0.8,   -0.7,   -0.7,   -0.7,   -0.5,   -0.6,  999.0,  999.0,  999.0,  999.0,  999.0,  999.0,  999.0,  999.0,  999.0,  999.0,  999.0,  999.0,  999.0,  999.0,   -0.6,   -0.7,   -0.6,   -0.8,   -0.7,   -0.7,   -0.7,   -0.7,   -0.8,   -0.8,   -0.8,   -0.8,   -0.9,   -0.9,   -0.9,   -0.9,   -1.0,   -0.9,   -0.9,   -0.9,   -0.9,   -0.8,   -0.8,   -0.7,   -0.7,   -0.6,   -0.6,   -0.6,   -0.6,   -0.6,   -0.6,   -0.5
2010/08/23 16:00,   -2.9,   -2.9,   -2.8,   -3.2,   -2.8,   -2.7,   -2.5,   -2.6,   -2.3,   -2.2,   -2.3,   -2.4,   -2.5,   -2.5,   -2.0,   -2.5,   -2.1,   -2.5,   -2.2,   -1.1,   -0.1,   -0.1,   -0.0,   -0.9,   -2.8,   -2.7,   -2.9,   -2.4,   -1.8,   -2.4,   -2.6,   -3.8,    0.0,   -3.5,   -3.9,   -4.1,   -2.7,   -2.3,   -3.1,   -0.2,   -2.5,   -3.0,   -3.4,   -3.2,   -3.8,   -3.6,   -3.0,   -3.5,   -3.6,   -3.2,   -3.2,   -2.1,   -3.8,   -3.3,   -3.0,  999.0,   -2.0,   -2.0,   -1.7,   -1.7,   -1.6,   -1.3,  999.0,   -0.5,   -0.7,   -1.1,   -0.9,   -0.7,   -0.7,   -1.0,   -0.8,   -0.8,   -0.9,   -0.9,   -0.9,   -0.9,   -0.8,   -0.8,   -0.9,   -0.8,   -0.8,   -0.8,   -0.8,   -0.8,   -0.7,   -0.7,   -0.6,   -0.7,   -0.7,   -0.5,   -0.6,   -0.6,   -0.6,   -0.6,   -0.5,   -0.5,   -0.5,   -0.5
2010/08/23 16:10,   -1.3,   -2.4,   -1.4,   -2.6,   -1.5,   -1.4,   -2.1,   -1.5,   -1.2,   -2.4,   -1.3,   -1.9,   -1.7,   -1.3,   -1.2,   -1.7,   -1.5,   -1.8,   -2.2,    0.3,    0.2,    0.2,    0.3,    0.4,    0.1,   -0.0,   -0.0,   -1.3,  999.0,   -0.7,   -0.8,   -1.5,   -0.4,   -0.8,   -0.6,   -1.0,   -0.5,   -0.6,   -0.3,    0.0,    0.2,    0.2,    0.1,   -0.0,   -0.0,  999.0,  999.0,  999.0,  999.0,  999.0,  999.0,  999.0,  999.0,  999.0,  999.0,  999.0,  999.0,  999.0,  999.0,  999.0,  999.0,  999.0,  999.0,  999.0,  999.0,   -0.8,   -0.9,   -0.8,   -0.8,   -0.8,   -0.9,   -0.9,   -0.9,   -0.8,   -0.9,   -0.8,   -0.8,   -0.7,   -0.7,   -0.7,   -0.7,   -0.7,   -0.7,   -0.6,   -0.6,   -0.7,   -0.7,   -0.7,   -0.7,   -0.6,   -0.6,   -0.6,   -0.6,   -0.5,   -0.5,   -0.6,   -0.5,   -0.5
2010/08/23 16:20,   -0.0,    0.0,    0.0,    0.0,    0.1,   -0.0,   -0.0,   -0.2,   -0.1,   -0.4,   -0.6,   -0.4,   -0.3,   -0.5,   -0.3,   -0.3,   -0.3,    0.0,   -0.0,   -0.2,    0.1,    0.3,    0.3,    0.3,    0.4,    0.5,    0.5,    0.6,    0.1,    0.3,    0.2,  999.0,   -0.0,   -0.0,  999.0,  999.0,  999.0,  999.0,  999.0,  999.0,  999.0,  999.0,  999.0,  999.0,  999.0,  999.0,  999.0,  999.0,  999.0,   -0.9,   -0.9,   -0.9,   -0.8,   -0.8,   -0.7,   -0.6,   -0.7,  999.0,  999.0,  999.0,  999.0,  999.0,  999.0,  999.0,  999.0,  999.0,  999.0,  999.0,  999.0,   -0.7,   -0.7,   -0.6,   -0.7,   -0.6,   -0.7,   -0.7,   -0.7,   -0.7,   -0.7,   -0.7,   -0.7,   -0.7,   -0.7,   -0.7,   -0.7,   -0.7,   -0.8,   -0.8,   -0.8,   -0.8,   -0.7,   -0.7,   -0.7,   -0.8,   -0.7,   -0.6,   -0.4,  999.0
2010/08/23 16:30,    0.1,    0.1,    0.0,    0.4,  999.0,    0.5,    0.2,  999.0,  999.0,   -0.1,   -0.2,   -0.2,  999.0,   -0.7,   -0.9,   -0.6,  999.0,   -0.9,   -0.7,   -0.7,   -0.2,  999.0,   -0.0,  999.0,  999.0,   -0.1,  999.0,  999.0,  999.0,  999.0,  999.0,  999.0,  999.0,  999.0,  999.0,  999.0,  999.0,  999.0,  999.0,  999.0,  999.0,  999.0,  999.0,  999.0,  999.0,  999.0,  999.0,  999.0,  999.0,  999.0,  999.0,  999.0,  999.0,  999.0,  999.0,  999.0,  999.0,  999.0,  999.0,  999.0,  999.0,  999.0,  999.0,  999.0,  999.0,  999.0,  999.0,  999.0,  999.0,  999.0,   -0.6,   -0.6,   -0.7,   -0.7,   -0.7,   -0.7,   -0.7,   -0.7,   -0.7,   -0.8,   -0.8,   -0.7,   -0.7,   -0.8,   -0.7,   -0.7,   -0.6,   -0.5,   -0.5,   -0.4,   -0.4,   -0.4,   -0.4,   -0.5,   -0.4,   -0.6,  999.0,  999.0
2010/08/23 16:40,   -0.1,   -0.1,   -0.1,   -0.2,   -0.2,   -0.1,   -0.0,   -0.0,   -0.0,    0.0,    0.0,    0.1,    0.1,    0.1,    0.1,    0.2,    0.1,    0.1,    0.1,    0.1,    0.1,    0.1,    0.1,    0.1,    0.1,    0.1,    0.3,    0.1,    0.1,    0.1,   -0.0,    0.0,   -0.1,  999.0,  999.0,  999.0,  999.0,  999.0,  999.0,  999.0,  999.0,  999.0,  999.0,  999.0,  999.0,  999.0,  999.0,  999.0,  999.0,  999.0,  999.0,  999.0,  999.0,  999.0,  999.0,  999.0,  999.0,  999.0,   -0.8,   -0.7,   -0.8,   -0.9,   -0.9,   -0.9,   -0.8,   -0.8,   -0.8,   -0.8,   -0.8,   -0.7,   -0.7,   -0.6,   -0.6,   -0.6,   -0.5,   -0.5,   -0.6,   -0.7,   -0.5,   -0.6,   -0.6,   -0.6,   -0.6,   -0.6,   -0.6,   -0.5,   -0.6,   -0.6,  999.0,  999.0,  999.0,   -0.4,  999.0,   -0.3,   -0.4,  999.0,   -0.3,  999.0
2010/08/23 16:50,   -0.0,   -0.1,   -0.0,   -0.1,   -0.1,   -0.0,   -0.0,   -0.1,   -0.1,   -0.1,   -0.1,   -0.1,   -0.1,   -0.0,    0.1,    0.1,    0.0,    0.1,    0.1,    0.1,    0.2,    0.1,    0.2,    0.2,    0.2,    0.1,    0.1,    0.0,    0.0,    0.0,   -0.0,    0.0,  999.0,  999.0,  999.0,  999.0,  999.0,  999.0,  999.0,  999.0,  999.0,  999.0,  999.0,  999.0,  999.0,  999.0,  999.0,  999.0,  999.0,  999.0,  999.0,  999.0,  999.0,  999.0,  999.0,  999.0,  999.0,  999.0,   -0.7,   -0.8,   -0.9,   -1.0,   -0.9,   -0.9,   -0.9,   -0.9,   -0.9,   -0.8,   -0.8,   -0.8,   -0.6,   -0.7,   -0.8,   -0.7,   -0.7,   -0.7,   -0.7,   -0.7,   -0.5,   -0.7,   -0.7,   -0.8,  999.0,   -0.7,  999.0,   -0.5,  999.0,  999.0,  999.0,  999.0,  999.0,  999.0,  999.0,  999.0,  999.0,  999.0,  999.0,  999.0
2010/08/23 17:00,   -0.0,   -0.1,   -0.0,   -0.1,   -0.1,   -0.0,   -0.0,   -0.0,    0.0,    0.0,    0.0,    0.1,    0.1,    0.1,    0.0,    0.0,    0.0,    0.1,    0.1,    0.1,    0.0,    0.1,    0.1,    0.1,    0.1,    0.1,    0.1,    0.1,    0.0,    0.0,    0.0,   -0.0,  999.0,  999.0,  999.0,  999.0,  999.0,  999.0,    0.4,  999.0,  999.0,  999.0,  999.0,  999.0,  999.0,  999.0,  999.0,  999.0,  999.0,  999.0,  999.0,  999.0,  999.0,  999.0,  999.0,  999.0,  999.0,  999.0,   -0.8,   -0.7,   -0.8,   -0.8,   -0.7,   -0.7,   -0.6,   -0.6,   -0.6,   -0.6,   -0.6,   -0.5,  999.0,  999.0,   -0.8,   -0.7,   -0.7,   -0.7,   -0.7,   -0.7,   -0.7,   -0.7,   -0.7,   -0.8,  999.0,   -0.8,   -0.6,  999.0,  999.0,  999.0,  999.0,  999.0,   -0.6,  999.0,  999.0,  999.0,  999.0,  999.0,  999.0,  999.0
2010/08/23 17:10,   -0.0,   -0.1,   -0.0,   -0.1,   -0.1,   -0.0,   -0.0,   -0.0,   -0.0,   -0.0,    0.0,    0.0,    0.0,    0.1,    0.1,    0.1,    0.1,    0.1,    0.1,    0.1,    0.1,    0.1,    0.2,    0.1,    0.1,    0.2,    0.3,    0.0,    0.1,   -0.0,    0.0,  999.0,  999.0,  999.0,  999.0,    0.2,    0.2,    0.1,  999.0,    0.1,    0.4,  999.0,  999.0,  999.0,  999.0,  999.0,  999.0,  999.0,   -0.9,   -0.9,   -0.9,   -1.0,   -1.0,   -1.1,   -1.1,   -1.0,   -1.0,   -0.9,   -0.9,   -1.0,   -1.0,   -0.9,   -0.9,   -0.9,   -0.8,   -0.8,   -0.8,   -0.7,   -0.7,   -0.6,   -0.6,   -0.5,   -0.6,  999.0,   -0.8,   -0.8,   -0.7,   -0.8,  999.0,   -0.7,   -0.6,   -0.7,   -0.5,   -0.7,   -0.7,   -0.5,   -0.6,  999.0,   -0.5,  999.0,  999.0,  999.0,  999.0,  999.0,  999.0,  999.0,  999.0,  999.0
2010/08/23 17:20,   -0.0,   -0.1,   -0.0,   -0.1,   -0.1,   -0.1,   -0.0,   -0.1,   -0.1,   -0.0,   -0.0,    0.0,    0.0,    0.0,    0.0,    0.0,    0.1,    0.1,    0.1,    0.2,    0.2,    0.2,    0.2,    0.2,    0.2,    0.2,  999.0,   -0.1,   -0.0,    0.0,    0.0,    0.0,    0.3,    0.2,    0.3,    0.2,    0.3,    0.3,    0.2,    0.3,    0.2,  999.0,  999.0,  999.0,  999.0,  999.0,  999.0,  999.0,  999.0,  999.0,   -0.9,   -1.0,   -1.0,   -1.0,   -1.0,   -1.0,   -1.0,   -1.0,   -1.0,   -1.0,   -1.0,   -1.0,   -1.0,   -1.0,   -1.0,   -1.0,   -1.0,   -1.0,   -0.9,   -1.0,   -0.9,   -0.9,   -0.9,   -0.9,   -0.9,   -0.9,   -0.9,   -0.9,   -0.8,   -0.8,   -0.8,   -0.7,   -0.6,   -0.6,   -0.5,   -0.5,   -0.6,   -0.4,  999.0,  999.0,  999.0,  999.0,  999.0,  999.0,  999.0,  999.0,  999.0,  999.0
2010/08/23 17:30,   -0.0,   -0.1,   -0.0,   -0.1,   -0.1,   -0.1,   -0.0,   -0.1,   -0.1,   -0.1,   -0.1,   -0.0,    0.0,    0.0,    0.1,    0.0,    0.0,    0.1,    0.1,    0.1,    0.1,    0.1,    0.1,    0.1,    0.2,    0.1,    0.1,   -0.0,   -0.0,    0.0,    0.2,    0.3,    0.1,    0.1,    0.2,    0.0,    0.2,    0.2,    0.1,    0.1,    0.1,    0.2,  999.0,  999.0,  999.0,  999.0,  999.0,  999.0,  999.0,  999.0,   -0.7,   -0.8,   -0.8,   -0.8,   -0.9,   -0.9,   -1.0,   -0.9,   -1.0,   -1.1,   -1.1,   -1.1,   -1.1,   -1.1,   -1.1,   -1.1,   -1.2,   -1.2,   -1.2,   -1.2,   -1.2,   -1.2,   -1.2,   -1.2,   -1.2,   -1.2,   -1.1,   -1.0,   -0.9,   -0.9,   -1.0,   -1.0,   -1.0,   -1.0,   -1.0,   -0.9,   -0.8,  999.0,  999.0,  999.0,  999.0,  999.0,  999.0,  999.0,  999.0,  999.0,  999.0,  999.0
2010/08/23 17:40,   -1.9,   -2.1,   -2.5,   -2.1,   -2.4,   -2.3,   -2.6,   -2.6,   -2.5,   -2.5,   -2.4,   -2.3,   -2.3,   -2.3,   -2.2,   -2.8,   -2.0,   -1.9,   -1.5,   -0.9,   -1.7,   -1.6,   -1.8,   -1.7,   -1.6,   -1.8,   -1.1,   -0.2,   -0.3,   -0.0,    0.1,    0.2,   -0.2,   -0.6,   -0.5,   -0.4,   -0.1,    0.0,    0.1,    0.1,    0.2,    0.2,  999.0,  999.0,  999.0,  999.0,  999.0,  999.0,  999.0,   -0.8,   -0.6,   -0.7,   -0.8,   -0.6,   -0.7,   -0.6,   -0.7,   -0.7,   -0.8,   -0.9,   -0.9,   -0.9,   -0.9,   -0.9,   -0.9,   -0.9,   -0.8,   -0.8,   -0.9,   -0.9,   -0.9,   -1.0,   -1.1,   -1.1,   -1.1,   -1.2,   -1.2,   -1.2,   -1.2,   -1.2,   -1.2,   -1.2,   -1.1,   -1.1,   -1.1,   -1.1,   -1.2,   -1.0,   -0.8,   -0.2,  999.0,  999.0,  999.0,  999.0,  999.0,  999.0,  999.0,  999.0
2010/08/23 17:50,    0.0,   -0.0,   -0.0,   -0.0,   -0.0,    0.0,   -0.0,   -0.0,    0.0,    0.1,    0.2,    0.2,    0.1,    0.1,    0.1,    0.0,    0.0,    0.1,    0.1,    0.1,    0.1,    0.1,  999.0,    0.1,    0.0,    0.0,    0.0,    0.0,    0.0,    0.1,    0.1,    0.1,    0.2,    0.2,    0.1,    0.3,    0.0,    0.2,  999.0,    0.1,    0.3,  999.0,  999.0,  999.0,  999.0,  999.0,  999.0,  999.0,  999.0,  999.0,   -0.6,   -0.5,   -0.8,   -0.8,   -0.7,   -0.8,   -0.7,   -0.8,   -0.7,   -0.8,   -0.8,   -0.8,   -0.9,   -0.9,   -0.8,   -0.8,   -0.8,   -0.8,   -0.7,   -0.8,   -0.7,   -0.7,   -0.8,   -0.8,   -0.8,   -0.8,   -0.9,   -1.0,   -1.0,   -1.0,   -0.9,   -0.9,   -0.9,   -0.8,   -0.7,   -0.7,   -0.7,   -0.5,   -0.5,   -0.4,  999.0,  999.0,  999.0,  999.0,  999.0,  999.0,  999.0,  999.0
2010/08/23 18:00,   -0.0,   -0.0,    0.0,   -0.0,    0.0,   -0.0,   -0.0,   -0.0,   -0.0,   -0.1,   -0.1,   -0.0,   -0.0,   -0.0,   -0.1,   -0.1,   -0.1,   -0.0,   -0.0,   -0.0,   -0.0,    0.1,    0.1,    0.1,    0.1,  999.0,    0.1,  999.0,   -1.3,   -2.0,   -2.0,   -1.8,   -1.8,   -1.2,    0.1,    0.2,  999.0,  999.0,    0.3,    0.2,    0.3,  999.0,  999.0,  999.0,  999.0,  999.0,  999.0,  999.0,  999.0,  999.0,  999.0,  999.0,  999.0,  999.0,  999.0,  999.0,  999.0,  999.0,  999.0,   -0.6,   -0.7,   -0.8,   -0.7,   -0.5,   -0.7,   -0.7,   -0.6,   -0.6,   -0.6,   -0.7,   -0.6,   -0.7,   -0.7,   -0.7,   -0.7,   -0.8,   -0.9,   -0.9,   -0.9,   -0.9,   -0.9,   -0.9,   -0.9,   -0.8,   -0.8,   -0.7,  999.0,  999.0,  999.0,  999.0,  999.0,  999.0,  999.0,  999.0,  999.0,  999.0,  999.0,  999.0
2010/08/23 18:10,    0.0,   -0.0,   -0.0,   -0.1,   -0.1,   -0.1,   -0.0,   -0.2,   -0.0,   -0.0,   -0.0,   -0.1,   -0.1,   -0.0,   -0.0,   -0.0,   -0.0,   -0.0,    0.0,    0.0,    0.0,    0.1,    0.1,    0.1,    0.1,    0.2,    0.1,    0.1,    0.1,    0.1,    0.1,    0.2,    0.4,    0.3,    0.3,    0.1,    0.2,    0.2,    0.4,    0.4,    0.2,  999.0,  999.0,  999.0,  999.0,  999.0,  999.0,  999.0,  999.0,  999.0,  999.0,  999.0,  999.0,  999.0,  999.0,  999.0,  999.0,  999.0,  999.0,  999.0,  999.0,  999.0,  999.0,  999.0,  999.0,  999.0,  999.0,  999.0,   -0.7,  999.0,  999.0,  999.0,   -0.3,  999.0,   -0.7,   -0.7,   -0.7,   -0.8,   -0.8,   -0.8,   -0.8,   -0.9,   -0.7,   -0.7,   -0.6,   -0.6,  999.0,  999.0,  999.0,  999.0,  999.0,  999.0,  999.0,  999.0,  999.0,  999.0,  999.0,  999.0
2010/08/23 18:20,    0.0,   -0.1,   -0.1,   -0.0,   -0.0,   -0.1,    0.0,   -0.0,   -0.0,   -0.1,   -0.1,   -0.1,   -0.0,   -0.1,   -0.1,   -0.1,   -0.1,   -0.0,    0.0,    0.1,    0.2,    0.1,    0.1,    0.1,    0.2,    0.2,    0.1,    0.2,    0.1,    0.2,    0.1,    0.2,    0.1,    0.2,    0.1,    0.2,    0.1,    0.2,  999.0,  999.0,    0.1,  999.0,  999.0,  999.0,  999.0,  999.0,  999.0,  999.0,  999.0,  999.0,  999.0,  999.0,  999.0,  999.0,  999.0,  999.0,  999.0,   -0.6,   -0.8,   -0.8,   -0.8,   -0.8,   -0.9,   -0.8,   -0.8,   -0.7,   -0.6,   -0.7,   -0.6,   -0.5,   -0.6,   -0.4,   -0.5,   -0.4,   -0.5,   -0.6,   -0.6,   -0.6,   -0.6,   -0.6,   -0.6,   -0.7,   -0.6,  999.0,  999.0,  999.0,  999.0,   -0.5,  999.0,  999.0,  999.0,  999.0,  999.0,  999.0,  999.0,  999.0,  999.0,  999.0
2010/08/23 18:30,    0.0,    0.0,    0.1,    0.0,   -0.1,   -0.0,   -0.0,   -0.0,   -0.0,   -0.1,   -0.1,   -0.1,   -0.0,   -0.0,   -0.2,   -0.2,   -0.1,   -0.0,   -0.0,    0.2,    0.1,    0.1,    0.2,    0.1,    0.2,    0.2,    0.2,    0.2,    0.3,    0.2,    0.2,    0.2,    0.2,    0.3,    0.2,    0.2,    0.2,   -0.3,  999.0,    0.1,   -0.5,  999.0,   -0.8,  999.0,  999.0,  999.0,  999.0,   -0.8,   -0.8,   -0.8,   -0.7,  999.0,   -0.5,  999.0,  999.0,  999.0,  999.0,  999.0,   -0.5,   -0.7,   -0.5,   -0.7,   -0.5,   -0.6,   -0.7,   -0.6,   -0.7,   -0.6,   -0.6,   -0.6,   -0.5,   -0.4,   -0.4,   -0.5,   -0.5,   -0.6,   -0.6,   -0.6,   -0.6,   -0.6,   -0.8,  999.0,  999.0,  999.0,  999.0,  999.0,  999.0,  999.0,  999.0,  999.0,  999.0,  999.0,  999.0,  999.0,  999.0,  999.0,  999.0,  999.0
2010/08/23 18:40,    0.0,    0.0,    0.0,   -0.0,   -0.1,   -0.0,   -0.0,   -0.0,   -0.0,    0.1,    0.1,    0.2,    0.2,    0.2,    0.1,    0.0,    0.1,    0.2,    0.2,   -0.1,   -0.1,   -0.1,    0.0,   -0.0,    0.1,    0.4,    0.2,    0.3,    0.2,    0.3,    0.4,    0.4,    0.3,    0.6,    0.3,   -1.1,   -1.8,   -1.8,   -1.8,   -1.8,   -2.0,   -2.0,   -1.9,   -1.9,   -1.5,   -1.0,   -0.9,   -0.8,   -0.8,   -0.9,   -0.9,  999.0,  999.0,   -0.8,   -0.7,   -0.7,   -0.7,  999.0,  999.0,  999.0,  999.0,   -0.6,   -0.5,   -0.6,   -0.5,   -0.5,   -0.6,   -0.5,   -0.6,   -0.4,   -0.6,   -0.4,   -0.5,   -0.5,   -0.6,   -0.7,   -0.8,   -0.7,   -0.8,   -0.7,  999.0,  999.0,  999.0,  999.0,  999.0,  999.0,  999.0,   -0.6,  999.0,   -0.7,   -0.8,   -0.7,   -0.7,   -0.7,   -0.6,   -0.6,   -0.7,   -0.4
2010/08/23 18:50,    0.1,   -0.1,    0.0,   -0.0,   -0.0,   -0.1,   -0.1,    0.0,    0.0,    0.0,    0.1,   -0.0,   -0.0,   -0.1,   -0.0,   -0.2,   -0.2,   -0.1,   -0.2,   -0.2,   -0.0,   -0.2,    0.1,    0.0,    0.0,    0.2,    0.1,    0.1,    0.4,    0.3,    0.4,    0.3,    0.4,  999.0,  999.0,   -1.9,   -1.9,   -2.1,   -2.0,   -2.0,   -2.0,   -2.1,   -2.0,   -2.2,   -1.5,   -0.9,   -0.8,   -1.0,   -0.9,   -0.9,   -0.9,   -0.9,   -0.9,   -0.9,   -0.9,   -0.8,   -0.9,   -0.8,   -0.8,   -0.8,   -0.7,   -0.7,   -0.6,   -0.6,   -0.6,   -0.9,   -0.8,   -0.8,   -0.8,   -0.8,   -0.8,   -0.9,   -0.8,   -0.9,   -0.8,   -0.7,   -0.7,   -0.8,  999.0,   -0.8,  999.0,   -0.9,   -0.8,  999.0,   -0.8,  999.0,  999.0,  999.0,  999.0,   -1.0,   -0.9,   -0.9,   -0.8,   -0.8,   -0.8,   -0.8,   -0.7,  999.0
2010/08/23 19:00,   -0.0,   -0.0,   -0.0,   -0.1,   -0.1,   -0.1,   -0.1,   -0.1,    0.0,   -0.1,    0.0,    0.1,    0.1,    0.0,    0.1,    0.1,    0.1,    0.1,    0.1,    0.1,    0.2,    0.3,    0.3,    0.2,    0.3,    0.3,    0.2,    0.1,    0.2,    0.1,    0.2,    0.2,    0.1,    0.2,  999.0,  999.0,    0.3,    0.2,    0.4,    0.3,    0.4,  999.0,  999.0,  999.0,  999.0,  999.0,  999.0,  999.0,  999.0,  999.0,  999.0,   -0.3,   -0.6,   -0.6,   -0.6,   -0.7,   -0.6,   -0.6,   -0.5,   -0.5,   -0.5,   -0.4,   -0.4,   -0.3,   -0.4,   -0.3,  999.0,  999.0,  999.0,   -0.6,   -0.6,   -0.7,   -0.8,   -0.9,   -1.0,   -1.0,  999.0,  999.0,  999.0,  999.0,  999.0,  999.0,   -0.9,  999.0,  999.0,  999.0,  999.0,  999.0,   -0.8,  999.0,   -0.9,  999.0,  999.0,   -0.8,   -0.9,   -0.7,   -0.5,  999.0
2010/08/23 19:10,    0.0,   -0.0,   -0.0,   -0.1,   -0.2,   -0.1,  999.0,   -0.1,   -0.1,   -0.1,   -0.1,   -0.1,   -0.1,   -0.1,   -0.0,   -0.0,    0.2,    0.0,    0.2,    0.3,    0.2,    0.2,    0.1,    0.1,    0.1,    0.2,    0.1,    0.1,    0.1,    0.1,    0.2,    0.2,    0.2,    0.2,    0.3,    0.3,    0.4,    0.3,    0.3,    0.2,    0.1,    0.1,  999.0,  999.0,  999.0,  999.0,  999.0,    0.6,  999.0,  999.0,  999.0,  999.0,  999.0,  999.0,  999.0,  999.0,  999.0,  999.0,  999.0,  999.0,  999.0,  999.0,  999.0,  999.0,  999.0,  999.0,  999.0,  999.0,  999.0,  999.0,  999.0,  999.0,  999.0,   -0.7,   -0.7,   -0.7,   -0.9,  999.0,  999.0,   -0.9,  999.0,  999.0,  999.0,  999.0,   -0.8,  999.0,  999.0,   -0.8,   -0.6,  999.0,  999.0,  999.0,  999.0,  999.0,  999.0,  999.0,  999.0,  999.0
2010/08/23 19:20,   -0.0,    0.0,    0.0,   -0.1,   -0.2,   -0.0,  999.0,   -0.0,    0.0,    0.0,    0.1,    0.1,    0.0,    0.1,    0.0,    0.1,    0.1,    0.0,    0.1,    0.1,    0.0,    0.1,    0.0,    0.1,    0.1,    0.1,    0.1,    0.1,    0.1,    0.2,    0.3,    0.3,    0.3,  999.0,  999.0,    0.7,    0.4,    0.2,    0.3,    0.2,  999.0,  999.0,  999.0,  999.0,    0.3,  999.0,  999.0,    0.1,  999.0,  999.0,  999.0,  999.0,  999.0,  999.0,  999.0,  999.0,  999.0,  999.0,  999.0,  999.0,  999.0,  999.0,  999.0,  999.0,  999.0,  999.0,  999.0,  999.0,  999.0,  999.0,  999.0,  999.0,  999.0,  999.0,  999.0,  999.0,  999.0,  999.0,  999.0,  999.0,  999.0,  999.0,  999.0,  999.0,  999.0,  999.0,  999.0,  999.0,  999.0,  999.0,  999.0,  999.0,  999.0,  999.0,  999.0,  999.0,  999.0,  999.0
2010/08/23 19:30,    0.0,   -0.0,   -0.0,   -0.1,   -0.1,   -0.0,    0.0,   -0.0,   -0.0,    0.0,    0.0,    0.0,    0.0,    0.0,    0.0,    0.0,    0.1,    0.1,    0.1,    0.0,    0.0,   -0.0,   -0.0,   -0.0,    0.0,    0.1,    0.1,    0.1,    0.0,    0.0,    0.1,    0.1,    0.1,    0.1,  999.0,  999.0,    0.0,    0.2,    0.1,    0.1,    0.2,  999.0,  999.0,  999.0,  999.0,  999.0,  999.0,  999.0,  999.0,  999.0,  999.0,  999.0,  999.0,  999.0,  999.0,  999.0,  999.0,   -0.8,   -0.8,  999.0,   -1.0,   -0.8,  999.0,  999.0,  999.0,  999.0,  999.0,  999.0,  999.0,  999.0,  999.0,  999.0,  999.0,  999.0,  999.0,  999.0,  999.0,  999.0,  999.0,  999.0,  999.0,  999.0,  999.0,  999.0,  999.0,  999.0,  999.0,  999.0,  999.0,  999.0,  999.0,  999.0,  999.0,  999.0,  999.0,  999.0,  999.0,  999.0
2010/08/23 19:40,    0.0,   -0.0,   -0.0,   -0.1,   -0.1,   -0.0,    0.0,   -0.0,   -0.0,   -0.1,   -0.1,   -0.1,   -0.0,    0.0,    0.0,   -0.0,    0.1,   -0.0,    0.1,    0.1,    0.2,    0.1,    0.2,    0.1,    0.2,    0.1,    0.2,    0.2,    0.2,    0.2,    0.3,    0.2,    0.3,    0.4,    0.2,    0.3,    0.2,    0.4,    0.1,    0.1,    0.1,    0.1,    0.2,  999.0,  999.0,  999.0,  999.0,  999.0,  999.0,  999.0,  999.0,  999.0,  999.0,  999.0,  999.0,  999.0,  999.0,  999.0,  999.0,  999.0,  999.0,  999.0,  999.0,  999.0,   -0.7,  999.0,  999.0,  999.0,  999.0,  999.0,  999.0,  999.0,  999.0,  999.0,  999.0,  999.0,  999.0,  999.0,  999.0,  999.0,  999.0,  999.0,  999.0,  999.0,  999.0,  999.0,  999.0,  999.0,  999.0,  999.0,  999.0,  999.0,  999.0,  999.0,  999.0,  999.0,  999.0,  999.0
2010/08/23 19:50,   -0.0,   -0.1,   -0.0,   -0.0,   -0.0,    0.0,   -0.0,   -0.0,   -0.1,   -0.1,   -0.1,   -0.1,   -0.1,   -0.1,   -0.0,   -0.0,   -0.1,   -0.0,   -0.0,   -0.0,    0.0,    0.1,    0.1,    0.1,    0.3,    0.1,    0.3,    0.3,    0.2,    0.3,    0.3,    0.4,    0.2,    0.3,    0.3,    0.3,    0.3,    0.4,    0.3,    0.2,    0.2,    0.3,    0.1,   -0.1,   -0.0,    0.1,    0.1,    0.1,    0.0,    0.0,  999.0,  999.0,  999.0,  999.0,  999.0,  999.0,  999.0,  999.0,  999.0,  999.0,  999.0,  999.0,  999.0,  999.0,  999.0,  999.0,  999.0,  999.0,  999.0,  999.0,  999.0,  999.0,  999.0,  999.0,  999.0,  999.0,  999.0,  999.0,  999.0,  999.0,  999.0,  999.0,  999.0,  999.0,  999.0,  999.0,  999.0,  999.0,  999.0,  999.0,  999.0,  999.0,  999.0,  999.0,  999.0,  999.0,  999.0,  999.0
2010/08/23 20:00,   -0.0,   -0.2,   -0.0,   -0.0,   -0.1,   -0.0,   -0.0,   -0.1,   -0.1,   -0.2,   -0.3,   -0.3,   -0.2,   -0.2,   -0.2,   -0.3,   -0.2,   -0.2,   -0.1,   -0.0,   -0.1,   -0.0,    0.0,   -0.0,    0.1,    0.1,    0.1,    0.1,    0.0,    0.1,    0.0,    0.1,    0.1,    0.1,    0.1,  999.0,  999.0,  999.0,  999.0,    0.1,    0.1,    0.2,  999.0,    0.4,    0.2,    0.1,    0.1,  999.0,  999.0,    0.1,    0.2,  999.0,  999.0,  999.0,  999.0,  999.0,  999.0,  999.0,  999.0,  999.0,  999.0,  999.0,  999.0,  999.0,  999.0,  999.0,  999.0,  999.0,  999.0,  999.0,  999.0,  999.0,  999.0,  999.0,  999.0,  999.0,  999.0,  999.0,  999.0,  999.0,  999.0,  999.0,  999.0,  999.0,  999.0,  999.0,  999.0,  999.0,  999.0,  999.0,  999.0,  999.0,  999.0,  999.0,  999.0,   -0.7,   -0.6,   -0.7
2010/08/23 20:10,   -0.0,   -0.1,   -0.0,    0.0,   -0.1,   -0.0,   -0.0,   -0.0,   -0.0,   -0.1,   -0.2,   -0.3,   -0.2,   -0.1,   -0.1,   -0.1,   -0.1,    0.0,   -0.0,   -0.0,    0.1,    0.0,    0.1,    0.1,    0.1,    0.1,    0.2,    0.2,    0.1,    0.1,    0.2,    0.1,    0.2,    0.2,    0.2,  999.0,    0.1,    0.2,    0.2,  999.0,  999.0,  999.0,  999.0,  999.0,    0.4,    0.3,    0.4,  999.0,  999.0,    0.2,    0.3,  999.0,  999.0,  999.0,  999.0,  999.0,  999.0,  999.0,  999.0,  999.0,  999.0,  999.0,  999.0,  999.0,  999.0,  999.0,  999.0,  999.0,  999.0,  999.0,  999.0,  999.0,  999.0,  999.0,  999.0,  999.0,  999.0,  999.0,  999.0,  999.0,  999.0,  999.0,  999.0,  999.0,  999.0,  999.0,  999.0,  999.0,  999.0,  999.0,  999.0,  999.0,  999.0,  999.0,  999.0,  999.0,  999.0,  999.0
2010/08/23 20:20,   -0.0,   -0.1,    0.0,   -0.0,   -0.1,    0.0,   -0.0,   -0.0,   -0.0,   -0.1,   -0.1,   -0.1,   -0.0,   -0.0,   -0.0,    0.1,    0.0,    0.0,    0.1,    0.1,    0.0,    0.0,    0.1,  999.0,    0.1,    0.1,    0.2,    0.1,    0.1,    0.1,    0.1,    0.1,   -0.0,    0.1,    0.1,    0.0,    0.1,    0.2,    0.1,    0.2,    0.1,    0.1,    0.2,    0.2,    0.2,    0.1,    0.0,  999.0,  999.0,  999.0,  999.0,  999.0,  999.0,  999.0,  999.0,  999.0,  999.0,  999.0,  999.0,  999.0,  999.0,  999.0,  999.0,  999.0,  999.0,  999.0,  999.0,  999.0,  999.0,  999.0,  999.0,  999.0,  999.0,  999.0,  999.0,  999.0,  999.0,  999.0,  999.0,  999.0,  999.0,  999.0,  999.0,  999.0,  999.0,  999.0,  999.0,  999.0,  999.0,  999.0,  999.0,  999.0,  999.0,  999.0,  999.0,  999.0,  999.0,  999.0
2010/08/23 20:30,   -0.0,   -0.0,   -0.0,   -0.0,   -0.0,   -0.0,   -0.0,   -0.1,   -0.0,   -0.0,   -0.0,   -0.1,   -0.0,   -0.0,    0.1,   -0.0,    0.1,    0.1,    0.1,    0.1,    0.1,    0.0,    0.0,   -0.1,    0.1,    0.1,    0.1,    0.1,    0.1,    0.1,    0.1,    0.2,    0.2,    0.3,  999.0,    0.2,    0.3,    0.3,    0.4,    0.5,    0.2,  999.0,    0.6,    0.3,    0.5,  999.0,  999.0,  999.0,  999.0,  999.0,  999.0,  999.0,  999.0,  999.0,  999.0,  999.0,  999.0,  999.0,  999.0,  999.0,  999.0,  999.0,  999.0,  999.0,  999.0,  999.0,  999.0,  999.0,  999.0,  999.0,  999.0,  999.0,  999.0,  999.0,  999.0,  999.0,  999.0,  999.0,  999.0,  999.0,  999.0,  999.0,  999.0,  999.0,  999.0,  999.0,  999.0,  999.0,  999.0,  999.0,  999.0,  999.0,  999.0,  999.0,  999.0,  999.0,  999.0,  999.0
2010/08/23 20:40,    0.0,   -0.0,   -0.0,   -0.0,   -0.1,    0.0,   -0.0,   -0.0,   -0.0,   -0.1,   -0.0,   -0.0,   -0.1,    0.0,   -0.0,   -0.1,    0.0,   -0.0,    0.0,   -0.0,   -0.0,   -0.1,    0.1,    0.1,    0.0,    0.0,    0.0,    0.0,    0.0,    0.0,    0.0,    0.0,   -0.0,    0.1,    0.0,    0.1,    0.1,    0.2,    0.1,    0.4,    0.4,    0.4,  999.0,  999.0,  999.0,  999.0,  999.0,  999.0,  999.0,  999.0,  999.0,  999.0,  999.0,  999.0,  999.0,  999.0,  999.0,  999.0,  999.0,  999.0,  999.0,  999.0,  999.0,  999.0,  999.0,  999.0,  999.0,  999.0,  999.0,  999.0,  999.0,  999.0,  999.0,  999.0,  999.0,  999.0,  999.0,  999.0,  999.0,  999.0,  999.0,  999.0,  999.0,  999.0,  999.0,  999.0,  999.0,  999.0,  999.0,  999.0,  999.0,  999.0,  999.0,  999.0,  999.0,  999.0,  999.0,  999.0
2010/08/23 20:50,    0.0,   -0.1,    0.0,   -0.0,   -0.1,    0.0,   -0.0,   -0.0,   -0.0,   -0.0,    0.0,    0.0,    0.0,    0.1,    0.0,    0.1,    0.2,    0.1,    0.2,    0.2,    0.2,    0.2,    0.2,    0.2,    0.1,    0.2,    0.2,    0.2,    0.2,    0.2,    0.2,    0.2,    0.3,    0.3,    0.1,    0.2,    0.3,    0.4,    0.3,    0.4,    0.3,    0.5,  999.0,    0.3,  999.0,  999.0,  999.0,  999.0,  999.0,  999.0,  999.0,  999.0,  999.0,  999.0,  999.0,  999.0,  999.0,  999.0,  999.0,  999.0,  999.0,  999.0,  999.0,  999.0,  999.0,  999.0,  999.0,  999.0,  999.0,  999.0,  999.0,  999.0,  999.0,  999.0,  999.0,  999.0,  999.0,  999.0,  999.0,  999.0,  999.0,  999.0,  999.0,  999.0,  999.0,  999.0,  999.0,  999.0,  999.0,  999.0,  999.0,  999.0,  999.0,  999.0,  999.0,  999.0,  999.0,  999.0
2010/08/23 21:00,   -0.0,   -0.0,   -0.0,   -0.0,   -0.1,   -0.0,    0.0,   -0.0,    0.0,   -0.0,   -0.0,   -0.0,   -0.0,    0.0,    0.0,    0.1,   -0.0,   -0.0,    0.1,    0.0,    0.1,    0.4,    0.4,    0.2,    0.1,    0.1,    0.2,    0.2,    0.1,    0.2,    0.2,    0.2,    0.2,    0.1,    0.2,    0.2,    0.2,    0.3,    0.3,    0.3,    0.3,    0.3,  999.0,  999.0,    0.2,    0.2,  999.0,  999.0,  999.0,  999.0,  999.0,  999.0,  999.0,  999.0,  999.0,  999.0,  999.0,  999.0,  999.0,  999.0,  999.0,  999.0,  999.0,  999.0,  999.0,  999.0,  999.0,  999.0,  999.0,  999.0,  999.0,  999.0,  999.0,  999.0,  999.0,  999.0,  999.0,  999.0,  999.0,  999.0,  999.0,  999.0,  999.0,  999.0,  999.0,  999.0,  999.0,  999.0,  999.0,  999.0,  999.0,  999.0,  999.0,  999.0,  999.0,  999.0,  999.0,  999.0
2010/08/23 21:10,    0.0,   -0.0,   -0.0,   -0.1,   -0.0,   -0.0,   -0.0,   -0.0,   -0.0,    0.0,    0.1,    0.0,    0.1,    0.0,    0.0,    0.1,   -0.1,    0.0,    0.2,    0.0,   -0.0,    0.2,    0.2,    0.3,    0.3,    0.3,    0.2,    0.2,    0.1,    0.2,    0.2,    0.2,    0.3,    0.2,    0.2,    0.2,    0.2,    0.1,    0.2,    0.1,    0.1,    0.0,  999.0,  999.0,    0.1,  999.0,  999.0,  999.0,  999.0,  999.0,  999.0,  999.0,  999.0,  999.0,  999.0,  999.0,  999.0,  999.0,  999.0,  999.0,  999.0,  999.0,  999.0,  999.0,  999.0,  999.0,  999.0,  999.0,  999.0,  999.0,  999.0,  999.0,  999.0,  999.0,  999.0,  999.0,  999.0,  999.0,  999.0,  999.0,  999.0,  999.0,  999.0,  999.0,  999.0,  999.0,  999.0,  999.0,  999.0,  999.0,  999.0,  999.0,  999.0,  999.0,  999.0,  999.0,  999.0,  999.0
2010/08/23 21:20,   -0.0,   -0.0,   -0.0,   -0.1,   -0.1,   -0.0,    0.0,    0.0,   -0.0,   -0.1,   -0.1,   -0.1,   -0.1,    0.0,   -0.1,   -0.1,   -0.0,   -0.0,   -0.1,    0.1,   -0.3,   -0.2,    0.1,   -0.1,   -0.1,    0.1,    0.1,    0.2,    0.1,    0.1,    0.1,    0.1,    0.1,    0.1,    0.0,   -0.0,   -0.0,   -0.0,   -0.0,   -0.0,   -0.0,    0.0,    0.0,   -0.1,    0.1,  999.0,  999.0,  999.0,  999.0,  999.0,  999.0,  999.0,  999.0,  999.0,  999.0,  999.0,  999.0,  999.0,  999.0,  999.0,  999.0,  999.0,  999.0,  999.0,  999.0,  999.0,  999.0,  999.0,  999.0,  999.0,  999.0,  999.0,  999.0,  999.0,  999.0,  999.0,  999.0,  999.0,  999.0,  999.0,  999.0,  999.0,  999.0,  999.0,  999.0,  999.0,  999.0,  999.0,  999.0,  999.0,  999.0,  999.0,  999.0,    0.4,    0.4,  999.0,  999.0,  999.0
2010/08/23 21:30,    0.0,   -0.0,   -0.0,   -0.1,   -0.1,   -0.0,    0.0,    0.0,    0.1,    0.1,    0.1,    0.0,   -0.0,    0.1,   -0.1,   -0.1,   -0.1,   -0.0,    0.0,   -0.0,   -0.1,    0.1,    0.0,   -0.0,   -0.0,   -0.0,   -0.1,   -0.0,   -0.1,   -0.0,   -0.1,   -0.1,   -0.1,   -0.1,   -0.1,   -0.1,  999.0,  999.0,  999.0,    0.2,   -0.0,    0.1,   -0.0,    0.1,  999.0,  999.0,  999.0,  999.0,  999.0,  999.0,  999.0,  999.0,  999.0,  999.0,  999.0,  999.0,  999.0,  999.0,  999.0,  999.0,  999.0,  999.0,  999.0,  999.0,  999.0,  999.0,  999.0,  999.0,  999.0,  999.0,  999.0,  999.0,  999.0,  999.0,  999.0,  999.0,  999.0,  999.0,  999.0,  999.0,  999.0,  999.0,  999.0,  999.0,  999.0,  999.0,  999.0,  999.0,  999.0,  999.0,  999.0,  999.0,  999.0,  999.0,    0.4,  999.0,  999.0,  999.0
2010/08/23 21:40,    0.0,   -0.1,   -0.0,   -0.0,   -0.0,    0.0,    0.0,    0.0,    0.1,    0.1,    0.1,    0.1,    0.0,    0.0,   -0.0,   -0.1,    0.1,   -0.2,  999.0,    0.1,    0.1,    0.1,  999.0,    0.2,    0.1,    0.2,    0.2,    0.2,    0.1,    0.1,    0.0,    0.1,    0.2,    0.1,    0.1,  999.0,    0.0,    0.3,  999.0,  999.0,    0.1,    0.0,    0.1,    0.2,  999.0,  999.0,    0.2,   -0.1,  999.0,  999.0,  999.0,  999.0,  999.0,  999.0,  999.0,  999.0,  999.0,  999.0,  999.0,  999.0,  999.0,  999.0,  999.0,  999.0,  999.0,  999.0,  999.0,  999.0,  999.0,  999.0,  999.0,  999.0,  999.0,  999.0,  999.0,  999.0,  999.0,  999.0,  999.0,  999.0,  999.0,  999.0,  999.0,  999.0,  999.0,  999.0,  999.0,  999.0,  999.0,  999.0,  999.0,  999.0,    0.3,  999.0,    0.4,  999.0,  999.0,  999.0
2010/08/23 21:50,  999.0,   -0.0,   -0.0,   -0.1,   -0.1,    0.0,    0.0,   -0.0,   -0.0,   -0.1,   -0.1,   -0.2,    0.0,   -0.1,   -0.1,   -0.1,   -0.0,   -0.0,    0.0,   -0.1,   -0.0,   -0.1,    0.1,   -0.0,    0.1,    0.1,    0.1,    0.1,    0.0,   -0.0,   -0.0,    0.1,   -0.0,   -0.0,   -0.0,  999.0,   -0.1,  999.0,  999.0,   -0.2,   -0.1,    0.1,    0.1,  999.0,  999.0,    0.0,    0.0,  999.0,  999.0,  999.0,  999.0,    0.1,  999.0,  999.0,  999.0,  999.0,  999.0,  999.0,  999.0,  999.0,  999.0,  999.0,  999.0,  999.0,  999.0,  999.0,  999.0,  999.0,  999.0,  999.0,  999.0,  999.0,  999.0,  999.0,  999.0,  999.0,  999.0,  999.0,  999.0,  999.0,  999.0,  999.0,  999.0,  999.0,  999.0,  999.0,  999.0,  999.0,  999.0,  999.0,  999.0,  999.0,    0.3,  999.0,  999.0,  999.0,    0.3,    0.3
2010/08/23 22:00,   -0.1,    0.1,   -0.0,   -0.1,   -0.1,   -0.0,   -0.0,   -0.0,    0.0,   -0.0,    0.0,   -0.0,    0.0,    0.0,   -0.1,    0.0,    0.1,    0.0,    0.0,    0.0,    0.0,    0.1,    0.1,    0.2,    0.1,    0.2,    0.3,    0.1,    0.1,    0.1,    0.3,    0.2,    0.2,    0.4,    0.4,    0.3,    0.3,    0.3,    0.3,    0.2,    0.3,    0.3,    0.4,  999.0,  999.0,    0.3,    0.3,  999.0,  999.0,  999.0,  999.0,  999.0,  999.0,  999.0,  999.0,  999.0,  999.0,  999.0,  999.0,  999.0,  999.0,  999.0,  999.0,  999.0,  999.0,  999.0,  999.0,  999.0,  999.0,  999.0,  999.0,  999.0,  999.0,  999.0,  999.0,  999.0,  999.0,  999.0,  999.0,  999.0,  999.0,  999.0,  999.0,    0.1,    0.1,    0.1,  999.0,    0.1,    0.1,  999.0,  999.0,  999.0,  999.0,  999.0,    0.1,    0.2,  999.0,  999.0
2010/08/23 22:10,   -0.0,   -0.0,   -0.0,   -0.1,   -0.1,   -0.0,    0.0,   -0.0,   -0.1,   -0.1,   -0.0,   -0.1,   -0.0,   -0.0,    0.0,    0.0,   -0.0,   -0.0,    0.1,    0.0,    0.1,    0.1,   -0.0,    0.0,    0.2,    0.1,    0.0,    0.1,    0.1,    0.1,    0.1,    0.1,    0.1,    0.2,    0.2,    0.2,    0.1,    0.1,    0.1,    0.0,    0.0,    0.1,    0.1,  999.0,  999.0,    0.0,    0.1,    0.2,    0.0,  999.0,  999.0,  999.0,  999.0,  999.0,  999.0,  999.0,  999.0,  999.0,  999.0,  999.0,  999.0,  999.0,  999.0,  999.0,  999.0,  999.0,  999.0,  999.0,  999.0,  999.0,  999.0,  999.0,  999.0,  999.0,  999.0,  999.0,  999.0,  999.0,  999.0,  999.0,  999.0,  999.0,  999.0,  999.0,  999.0,  999.0,  999.0,  999.0,    0.2,  999.0,    0.2,  999.0,  999.0,  999.0,  999.0,  999.0,    0.2,  999.0
2010/08/23 22:20,    0.0,    0.0,    0.0,   -0.1,   -0.2,   -0.1,   -0.0,   -0.0,   -0.0,   -0.0,   -0.0,   -0.1,   -0.0,   -0.1,   -0.1,   -0.1,   -0.1,   -0.2,   -0.3,   -0.2,    0.0,   -0.1,   -0.1,    0.0,   -0.1,   -0.1,    0.0,    0.1,    0.1,    0.1,    0.1,    0.2,    0.2,    0.3,    0.2,    0.2,    0.3,    0.3,    0.4,    0.3,    0.2,    0.2,    0.2,    0.1,  999.0,    0.1,    0.1,  999.0,  999.0,    0.0,    0.0,  999.0,  999.0,  999.0,  999.0,  999.0,  999.0,  999.0,  999.0,  999.0,  999.0,  999.0,  999.0,  999.0,  999.0,  999.0,  999.0,  999.0,  999.0,  999.0,  999.0,  999.0,  999.0,  999.0,  999.0,  999.0,  999.0,  999.0,  999.0,  999.0,  999.0,  999.0,    0.2,  999.0,    0.2,  999.0,    0.2,  999.0,    0.2,    0.2,  999.0,  999.0,  999.0,  999.0,  999.0,    0.2,    0.1,    0.2
2010/08/23 22:30,    0.0,   -0.0,    0.0,   -0.0,   -0.2,   -0.1,   -0.0,   -0.0,   -0.0,    0.0,    0.1,   -0.0,    0.0,    0.0,    0.1,    0.1,    0.1,    0.1,    0.1,    0.1,    0.1,    0.1,    0.1,    0.1,    0.1,    0.2,    0.2,    0.2,    0.1,    0.1,    0.3,    0.1,    0.1,  999.0,    0.1,   -0.1,    0.3,    0.2,    0.3,    0.2,    0.2,    0.3,    0.1,    0.2,  999.0,    0.2,    0.3,  999.0,  999.0,  999.0,  999.0,  999.0,  999.0,  999.0,  999.0,  999.0,    0.3,  999.0,  999.0,  999.0,  999.0,  999.0,  999.0,  999.0,  999.0,  999.0,  999.0,  999.0,  999.0,  999.0,  999.0,  999.0,  999.0,  999.0,  999.0,  999.0,  999.0,  999.0,  999.0,  999.0,  999.0,  999.0,  999.0,  999.0,  999.0,  999.0,  999.0,  999.0,  999.0,  999.0,  999.0,  999.0,  999.0,  999.0,  999.0,  999.0,  999.0,  999.0
2010/08/23 22:40,   -0.0,   -0.0,   -0.0,   -0.1,   -0.1,    0.0,    0.0,   -0.0,    0.1,    0.1,    0.1,    0.1,    0.1,    0.1,    0.2,    0.1,    0.0,    0.0,    0.1,    0.2,    0.2,    0.1,    0.1,    0.2,    0.2,    0.3,    0.3,    0.3,    0.2,    0.2,    0.2,    0.3,    0.2,  999.0,    0.3,    0.3,    0.1,    0.2,    0.2,  999.0,    0.1,    0.0,    0.1,    0.1,   -0.0,   -0.0,  999.0,  999.0,  999.0,  999.0,    0.0,  999.0,  999.0,  999.0,  999.0,  999.0,  999.0,  999.0,  999.0,  999.0,  999.0,  999.0,  999.0,  999.0,  999.0,  999.0,  999.0,  999.0,  999.0,  999.0,  999.0,  999.0,  999.0,  999.0,  999.0,  999.0,  999.0,  999.0,  999.0,  999.0,  999.0,  999.0,  999.0,  999.0,  999.0,  999.0,  999.0,  999.0,  999.0,  999.0,  999.0,  999.0,  999.0,  999.0,  999.0,  999.0,  999.0,  999.0
2010/08/23 22:50,   -0.0,    0.0,    0.0,    0.0,    0.0,    0.0,    0.0,    0.0,    0.0,    0.0,    0.0,    0.0,    0.1,    0.1,    0.1,    0.0,    0.1,    0.1,    0.1,    0.0,    0.2,    0.2,  999.0,    0.0,    0.1,    0.1,    0.1,    0.2,    0.1,    0.1,    0.2,    0.2,    0.4,    0.3,    0.3,    0.3,    0.3,    0.3,    0.2,  999.0,  999.0,    0.3,    0.3,    0.3,    0.2,    0.3,    0.2,  999.0,  999.0,  999.0,  999.0,  999.0,  999.0,  999.0,  999.0,  999.0,  999.0,  999.0,  999.0,  999.0,  999.0,  999.0,  999.0,  999.0,  999.0,  999.0,  999.0,  999.0,  999.0,  999.0,  999.0,  999.0,  999.0,  999.0,  999.0,  999.0,  999.0,  999.0,  999.0,  999.0,  999.0,  999.0,  999.0,  999.0,  999.0,  999.0,  999.0,  999.0,  999.0,  999.0,  999.0,  999.0,  999.0,  999.0,  999.0,  999.0,  999.0,  999.0
2010/08/23 23:00,   -0.0,   -0.1,   -0.0,   -0.1,   -0.1,   -0.1,   -0.1,   -0.0,   -0.1,   -0.1,   -0.0,   -0.0,   -0.1,   -0.0,   -0.0,   -0.2,    0.1,    0.0,    0.1,    0.1,   -0.0,    0.1,  999.0,    0.1,    0.1,    0.1,    0.1,    0.1,    0.1,    0.1,    0.2,    0.1,    0.2,    0.1,    0.2,  999.0,    0.4,    0.4,    0.4,  999.0,    0.4,    0.4,    0.4,    0.3,  999.0,    0.3,    0.3,    0.3,  999.0,  999.0,  999.0,  999.0,  999.0,  999.0,  999.0,  999.0,  999.0,  999.0,  999.0,  999.0,  999.0,  999.0,  999.0,  999.0,  999.0,  999.0,  999.0,  999.0,  999.0,  999.0,  999.0,  999.0,  999.0,  999.0,  999.0,  999.0,  999.0,  999.0,  999.0,  999.0,  999.0,  999.0,  999.0,  999.0,  999.0,  999.0,  999.0,  999.0,  999.0,  999.0,  999.0,  999.0,  999.0,  999.0,  999.0,  999.0,  999.0,  999.0
2010/08/23 23:10,    0.0,   -0.0,   -0.0,   -0.1,   -0.2,   -0.1,   -0.0,   -0.1,   -0.2,   -0.2,   -0.2,   -0.2,   -0.2,   -0.2,   -0.1,   -0.1,   -0.1,   -0.0,   -0.1,   -0.0,   -0.0,    0.1,   -0.0,    0.1,    0.0,    0.0,    0.1,    0.1,    0.0,    0.1,    0.1,    0.2,    0.1,    0.2,  999.0,    0.1,    0.2,    0.2,    0.2,  999.0,    0.4,    0.3,    0.3,    0.3,  999.0,    0.3,  999.0,    0.6,    0.3,    0.4,  999.0,  999.0,  999.0,  999.0,  999.0,  999.0,  999.0,  999.0,  999.0,  999.0,  999.0,  999.0,  999.0,  999.0,  999.0,  999.0,  999.0,  999.0,  999.0,  999.0,  999.0,  999.0,  999.0,  999.0,  999.0,  999.0,  999.0,  999.0,  999.0,  999.0,  999.0,  999.0,  999.0,  999.0,  999.0,  999.0,  999.0,  999.0,  999.0,    0.4,  999.0,  999.0,  999.0,  999.0,  999.0,  999.0,  999.0,    0.3
2010/08/23 23:20,   -0.0,   -0.1,   -0.1,   -0.1,   -0.1,    0.0,   -0.0,   -0.1,   -0.1,   -0.1,   -0.0,   -0.0,   -0.1,   -0.0,   -0.0,    0.0,    0.0,    0.0,    0.0,    0.1,    0.3,  999.0,    0.1,    0.2,    0.2,    0.2,    0.3,    0.2,    0.1,    0.2,    0.3,    0.4,  999.0,    0.4,    0.2,  999.0,  999.0,    0.4,    0.3,  999.0,  999.0,    0.3,    0.3,    0.4,    0.5,    0.5,    0.4,    0.4,  999.0,   -0.0,    0.3,  999.0,  999.0,  999.0,  999.0,  999.0,  999.0,  999.0,  999.0,  999.0,  999.0,  999.0,  999.0,  999.0,  999.0,  999.0,  999.0,  999.0,  999.0,  999.0,  999.0,  999.0,  999.0,  999.0,  999.0,  999.0,  999.0,  999.0,  999.0,  999.0,  999.0,  999.0,  999.0,  999.0,  999.0,  999.0,  999.0,  999.0,  999.0,  999.0,  999.0,  999.0,  999.0,  999.0,  999.0,  999.0,  999.0,  999.0
2010/08/23 23:30,   -0.0,   -0.1,   -0.0,   -0.0,    0.0,    0.0,   -0.0,    0.0,    0.0,    0.1,    0.1,    0.1,    0.1,    0.1,    0.2,    0.1,    0.1,    0.1,   -0.1,  999.0,   -0.0,   -0.1,    0.0,    0.0,    0.0,   -0.1,    0.0,   -0.0,    0.0,    0.0,    0.1,    0.1,   -0.0,    0.1,    0.3,    0.4,    0.2,    0.2,    0.3,  999.0,  999.0,    0.2,    0.3,    0.4,  999.0,  999.0,  999.0,  999.0,  999.0,  999.0,  999.0,  999.0,  999.0,  999.0,  999.0,  999.0,  999.0,  999.0,  999.0,  999.0,  999.0,  999.0,  999.0,  999.0,  999.0,  999.0,  999.0,  999.0,  999.0,  999.0,  999.0,  999.0,  999.0,  999.0,  999.0,  999.0,  999.0,  999.0,  999.0,  999.0,  999.0,  999.0,  999.0,  999.0,  999.0,  999.0,  999.0,  999.0,  999.0,  999.0,  999.0,  999.0,  999.0,  999.0,  999.0,  999.0,  999.0,  999.0
2010/08/23 23:40,   -0.0,   -0.1,   -0.0,   -0.1,   -0.0,   -0.0,   -0.0,   -0.0,    0.0,   -0.0,    0.0,    0.0,    0.0,    0.0,    0.1,    0.1,    0.1,    0.1,    0.1,    0.1,    0.1,    0.1,    0.0,   -0.0,   -0.0,   -0.0,   -0.1,   -0.1,   -0.0,    0.0,   -0.0,   -0.1,    0.0,    0.1,  999.0,    0.0,  999.0,  999.0,    0.2,    0.3,  999.0,    0.3,    0.3,    0.3,    0.2,  999.0,  999.0,  999.0,  999.0,  999.0,  999.0,  999.0,  999.0,  999.0,  999.0,  999.0,  999.0,  999.0,  999.0,  999.0,  999.0,  999.0,  999.0,  999.0,  999.0,  999.0,  999.0,  999.0,  999.0,  999.0,  999.0,  999.0,  999.0,  999.0,  999.0,  999.0,  999.0,  999.0,  999.0,  999.0,  999.0,  999.0,  999.0,  999.0,  999.0,  999.0,  999.0,  999.0,  999.0,  999.0,  999.0,  999.0,  999.0,  999.0,  999.0,  999.0,  999.0,  999.0
2010/08/23 23:50,   -0.0,    0.0,   -0.0,   -0.1,   -0.1,   -0.0,   -0.0,   -0.1,   -0.1,   -0.1,   -0.1,   -0.0,   -0.1,   -0.1,   -0.0,   -0.0,    0.0,   -0.0,    0.0,    0.1,    0.0,    0.0,    0.0,    0.1,    0.1,    0.1,    0.1,    0.1,    0.1,    0.1,    0.2,    0.3,    0.1,    0.1,    0.1,  999.0,    0.1,    0.1,   -0.1,  999.0,  999.0,    0.3,    0.1,    0.1,    0.2,  999.0,  999.0,    0.3,  999.0,    0.2,  999.0,  999.0,  999.0,  999.0,  999.0,  999.0,  999.0,  999.0,  999.0,  999.0,  999.0,  999.0,  999.0,  999.0,  999.0,  999.0,  999.0,  999.0,  999.0,  999.0,  999.0,  999.0,  999.0,  999.0,  999.0,  999.0,  999.0,  999.0,  999.0,  999.0,  999.0,  999.0,  999.0,  999.0,  999.0,  999.0,  999.0,  999.0,  999.0,  999.0,  999.0,  999.0,  999.0,  999.0,  999.0,  999.0,  999.0,  999.0
